Wetterdaten: Dienstag, 12.04.2022
Datum Zeit Temp. Aussen Temp. o. S. Temp +5cm Feuchte Auss Luftdruck Regen Sonnenschein Regendauer Solar Windben Empfang
12.04.2022 00:00 10,8 C 10,0 C 6,1 C 61 % 1013,0 hPa 0,0 l/m 0 min 0 min 0 W/m 12,9 km/h (3 Bft) 97,87 %
12.04.2022 00:02 10,8 C 10,0 C 6,1 C 60 % 1013,0 hPa 0,0 l/m 0 min 0 min 0 W/m 6,4 km/h (2 Bft) 92,50 %
12.04.2022 00:04 10,7 C 10,0 C 6,1 C 60 % 1012,9 hPa 0,0 l/m 0 min 0 min 0 W/m 12,9 km/h (3 Bft) 100,00 %
12.04.2022 00:08 10,7 C 10,0 C 6,1 C 61 % 1013,0 hPa 0,0 l/m 0 min 0 min 0 W/m 9,7 km/h (2 Bft) 98,94 %
12.04.2022 00:10 10,7 C 10,0 C 6,1 C 61 % 1012,9 hPa 0,0 l/m 0 min 0 min 0 W/m 12,9 km/h (3 Bft) 100,00 %
12.04.2022 00:12 10,7 C 10,0 C 6,1 C 61 % 1012,9 hPa 0,0 l/m 0 min 0 min 0 W/m 6,4 km/h (2 Bft) 100,00 %
12.04.2022 00:14 10,7 C 10,0 C 6,1 C 61 % 1012,8 hPa 0,0 l/m 0 min 0 min 0 W/m 12,9 km/h (3 Bft) 100,00 %
12.04.2022 00:16 10,7 C 10,0 C 6,1 C 60 % 1012,9 hPa 0,0 l/m 0 min 0 min 0 W/m 9,7 km/h (2 Bft) 100,00 %
12.04.2022 00:18 10,7 C 10,0 C 6,1 C 60 % 1012,9 hPa 0,0 l/m 0 min 0 min 0 W/m 6,4 km/h (2 Bft) 100,00 %
12.04.2022 00:20 10,7 C 10,0 C 6,1 C 60 % 1012,9 hPa 0,0 l/m 0 min 0 min 0 W/m 6,4 km/h (2 Bft) 97,87 %
12.04.2022 00:22 10,7 C 10,0 C 6,1 C 61 % 1012,9 hPa 0,0 l/m 0 min 0 min 0 W/m 6,4 km/h (2 Bft) 100,00 %
12.04.2022 00:24 10,7 C 10,0 C 6,1 C 60 % 1013,0 hPa 0,0 l/m 0 min 0 min 0 W/m 6,4 km/h (2 Bft) 100,00 %
12.04.2022 00:26 10,7 C 10,0 C 6,1 C 61 % 1012,9 hPa 0,0 l/m 0 min 0 min 0 W/m 6,4 km/h (2 Bft) 100,00 %
12.04.2022 00:28 10,7 C 10,0 C 6,1 C 60 % 1013,0 hPa 0,0 l/m 0 min 0 min 0 W/m 6,4 km/h (2 Bft) 100,00 %
12.04.2022 00:30 10,6 C 10,0 C 6,1 C 60 % 1012,9 hPa 0,0 l/m 0 min 0 min 0 W/m 6,4 km/h (2 Bft) 100,00 %
12.04.2022 00:32 10,6 C 10,0 C 6,1 C 61 % 1013,0 hPa 0,0 l/m 0 min 0 min 0 W/m 6,4 km/h (2 Bft) 100,00 %
12.04.2022 00:34 10,6 C 10,0 C 6,1 C 60 % 1013,0 hPa 0,0 l/m 0 min 0 min 0 W/m 12,9 km/h (3 Bft) 100,00 %
12.04.2022 00:36 10,6 C 10,0 C 6,1 C 61 % 1012,9 hPa 0,0 l/m 0 min 0 min 0 W/m 9,7 km/h (2 Bft) 100,00 %
12.04.2022 00:38 10,7 C 10,0 C 6,1 C 61 % 1012,9 hPa 0,0 l/m 0 min 0 min 0 W/m 12,9 km/h (3 Bft) 100,00 %
12.04.2022 00:40 10,7 C 10,0 C 6,1 C 60 % 1013,0 hPa 0,0 l/m 0 min 0 min 0 W/m 6,4 km/h (2 Bft) 100,00 %
12.04.2022 00:42 10,7 C 10,0 C 6,1 C 61 % 1012,9 hPa 0,0 l/m 0 min 0 min 0 W/m 12,9 km/h (3 Bft) 95,74 %
12.04.2022 00:44 10,6 C 10,0 C 6,1 C 61 % 1012,9 hPa 0,0 l/m 0 min 0 min 0 W/m 6,4 km/h (2 Bft) 100,00 %
12.04.2022 00:46 10,7 C 10,0 C 6,1 C 61 % 1012,9 hPa 0,0 l/m 0 min 0 min 0 W/m 9,7 km/h (2 Bft) 100,00 %
12.04.2022 00:48 10,6 C 10,0 C 6,1 C 61 % 1012,9 hPa 0,0 l/m 0 min 0 min 0 W/m 12,9 km/h (3 Bft) 100,00 %
12.04.2022 00:50 10,6 C 10,0 C 6,1 C 61 % 1012,9 hPa 0,0 l/m 0 min 0 min 0 W/m 6,4 km/h (2 Bft) 100,00 %
12.04.2022 00:52 10,6 C 10,0 C 6,1 C 61 % 1012,9 hPa 0,0 l/m 0 min 0 min 0 W/m 12,9 km/h (3 Bft) 97,87 %
12.04.2022 00:54 10,6 C 10,0 C 6,1 C 61 % 1012,9 hPa 0,0 l/m 0 min 0 min 0 W/m 6,4 km/h (2 Bft) 100,00 %
12.04.2022 00:56 10,6 C 10,0 C 6,1 C 61 % 1012,9 hPa 0,0 l/m 0 min 0 min 0 W/m 6,4 km/h (2 Bft) 95,74 %
12.04.2022 00:58 10,6 C 10,0 C 6,1 C 61 % 1012,8 hPa 0,0 l/m 0 min 0 min 0 W/m 9,7 km/h (2 Bft) 97,87 %
12.04.2022 01:00 10,6 C 10,0 C 6,1 C 61 % 1012,8 hPa 0,0 l/m 0 min 0 min 0 W/m 9,7 km/h (2 Bft) 95,74 %
12.04.2022 01:02 10,7 C 10,0 C 6,1 C 61 % 1012,8 hPa 0,0 l/m 0 min 0 min 0 W/m 12,9 km/h (3 Bft) 97,83 %
12.04.2022 01:04 10,7 C 10,0 C 6,1 C 61 % 1012,7 hPa 0,0 l/m 0 min 0 min 0 W/m 6,4 km/h (2 Bft) 97,87 %
12.04.2022 01:06 10,7 C 10,0 C 6,1 C 61 % 1012,7 hPa 0,0 l/m 0 min 0 min 0 W/m 16,1 km/h (3 Bft) 95,74 %
12.04.2022 01:08 10,6 C 10,0 C 6,1 C 61 % 1012,7 hPa 0,0 l/m 0 min 0 min 0 W/m 6,4 km/h (2 Bft) 97,87 %
12.04.2022 01:10 10,6 C 10,0 C 6,1 C 61 % 1012,6 hPa 0,0 l/m 0 min 0 min 0 W/m 12,9 km/h (3 Bft) 95,74 %
12.04.2022 01:12 10,6 C 10,0 C 6,1 C 61 % 1012,6 hPa 0,0 l/m 0 min 0 min 0 W/m 12,9 km/h (3 Bft) 97,87 %
12.04.2022 01:14 10,7 C 10,0 C 6,1 C 61 % 1012,6 hPa 0,0 l/m 0 min 0 min 0 W/m 16,1 km/h (3 Bft) 95,74 %
12.04.2022 01:16 10,7 C 10,0 C 6,7 C 61 % 1012,6 hPa 0,0 l/m 0 min 0 min 0 W/m 16,1 km/h (3 Bft) 95,65 %
12.04.2022 01:18 10,7 C 10,0 C 6,7 C 61 % 1012,6 hPa 0,0 l/m 0 min 0 min 0 W/m 12,9 km/h (3 Bft) 97,87 %
12.04.2022 01:20 10,7 C 10,0 C 6,7 C 61 % 1012,5 hPa 0,0 l/m 0 min 0 min 0 W/m 12,9 km/h (3 Bft) 97,87 %
12.04.2022 01:22 10,7 C 10,0 C 6,7 C 61 % 1012,5 hPa 0,0 l/m 0 min 0 min 0 W/m 12,9 km/h (3 Bft) 97,87 %
12.04.2022 01:24 10,7 C 10,0 C 6,7 C 61 % 1012,5 hPa 0,0 l/m 0 min 0 min 0 W/m 12,9 km/h (3 Bft) 97,87 %
12.04.2022 01:26 10,8 C 10,0 C 6,7 C 61 % 1012,5 hPa 0,0 l/m 0 min 0 min 0 W/m 9,7 km/h (2 Bft) 95,65 %
12.04.2022 01:28 10,8 C 10,0 C 6,7 C 61 % 1012,5 hPa 0,0 l/m 0 min 0 min 0 W/m 16,1 km/h (3 Bft) 97,87 %
12.04.2022 01:30 10,8 C 10,0 C 6,7 C 61 % 1012,5 hPa 0,0 l/m 0 min 0 min 0 W/m 16,1 km/h (3 Bft) 95,74 %
12.04.2022 01:32 10,8 C 10,0 C 6,7 C 61 % 1012,5 hPa 0,0 l/m 0 min 0 min 0 W/m 6,4 km/h (2 Bft) 93,62 %
12.04.2022 01:34 10,8 C 10,0 C 6,7 C 61 % 1012,5 hPa 0,0 l/m 0 min 0 min 0 W/m 6,4 km/h (2 Bft) 97,87 %
12.04.2022 01:36 10,8 C 10,0 C 6,7 C 61 % 1012,5 hPa 0,0 l/m 0 min 0 min 0 W/m 12,9 km/h (3 Bft) 97,87 %
12.04.2022 01:38 10,8 C 10,0 C 6,1 C 61 % 1012,5 hPa 0,0 l/m 0 min 0 min 0 W/m 9,7 km/h (2 Bft) 96,36 %
12.04.2022 01:40 10,8 C 10,0 C 6,1 C 61 % 1012,5 hPa 0,0 l/m 0 min 0 min 0 W/m 12,9 km/h (3 Bft) 94,29 %
12.04.2022 01:42 10,8 C 10,0 C 6,1 C 62 % 1012,5 hPa 0,0 l/m 0 min 0 min 0 W/m 6,4 km/h (2 Bft) 97,87 %
12.04.2022 01:44 10,8 C 10,0 C 6,1 C 61 % 1012,5 hPa 0,0 l/m 0 min 0 min 0 W/m 12,9 km/h (3 Bft) 97,87 %
12.04.2022 01:46 10,8 C 10,0 C 6,1 C 62 % 1012,5 hPa 0,0 l/m 0 min 0 min 0 W/m 6,4 km/h (2 Bft) 95,92 %
12.04.2022 01:48 10,8 C 10,0 C 6,1 C 62 % 1012,5 hPa 0,0 l/m 0 min 0 min 0 W/m 12,9 km/h (3 Bft) 93,62 %
12.04.2022 01:50 10,8 C 10,0 C 6,1 C 62 % 1012,5 hPa 0,0 l/m 0 min 0 min 0 W/m 6,4 km/h (2 Bft) 95,74 %
12.04.2022 01:52 10,8 C 10,0 C 6,1 C 62 % 1012,5 hPa 0,0 l/m 0 min 0 min 0 W/m 6,4 km/h (2 Bft) 95,74 %
12.04.2022 01:54 10,8 C 10,0 C 6,1 C 62 % 1012,5 hPa 0,0 l/m 0 min 0 min 0 W/m 9,7 km/h (2 Bft) 95,74 %
12.04.2022 01:56 10,8 C 10,0 C 6,1 C 62 % 1012,4 hPa 0,0 l/m 0 min 0 min 0 W/m 19,3 km/h (3 Bft) 95,74 %
12.04.2022 01:58 10,7 C 10,0 C 6,1 C 62 % 1012,4 hPa 0,0 l/m 0 min 0 min 0 W/m 6,4 km/h (2 Bft) 95,65 %
12.04.2022 02:00 10,7 C 10,0 C 6,1 C 62 % 1012,4 hPa 0,0 l/m 0 min 0 min 0 W/m 9,7 km/h (2 Bft) 95,74 %
12.04.2022 02:02 10,7 C 10,0 C 6,1 C 62 % 1012,4 hPa 0,0 l/m 0 min 0 min 0 W/m 16,1 km/h (3 Bft) 95,74 %
12.04.2022 02:04 10,7 C 10,0 C 6,1 C 62 % 1012,3 hPa 0,0 l/m 0 min 0 min 0 W/m 12,9 km/h (3 Bft) 93,62 %
12.04.2022 02:06 10,7 C 10,0 C 6,1 C 62 % 1012,3 hPa 0,0 l/m 0 min 0 min 0 W/m 12,9 km/h (3 Bft) 95,74 %
12.04.2022 02:08 10,7 C 10,0 C 6,1 C 62 % 1012,3 hPa 0,0 l/m 0 min 0 min 0 W/m 6,4 km/h (2 Bft) 95,74 %
12.04.2022 02:10 10,7 C 10,0 C 6,1 C 63 % 1012,3 hPa 0,0 l/m 0 min 0 min 0 W/m 6,4 km/h (2 Bft) 95,65 %
12.04.2022 02:12 10,6 C 9,4 C 6,1 C 63 % 1012,3 hPa 0,0 l/m 0 min 0 min 0 W/m 6,4 km/h (2 Bft) 95,74 %
12.04.2022 02:14 10,6 C 9,4 C 6,1 C 63 % 1012,3 hPa 0,0 l/m 0 min 0 min 0 W/m 6,4 km/h (2 Bft) 95,74 %
12.04.2022 02:16 10,6 C 9,4 C 6,1 C 63 % 1012,2 hPa 0,0 l/m 0 min 0 min 0 W/m 6,4 km/h (2 Bft) 95,74 %
12.04.2022 02:18 10,6 C 9,4 C 6,1 C 63 % 1012,2 hPa 0,0 l/m 0 min 0 min 0 W/m 6,4 km/h (2 Bft) 97,87 %
12.04.2022 02:20 10,6 C 9,4 C 6,1 C 63 % 1012,2 hPa 0,0 l/m 0 min 0 min 0 W/m 9,7 km/h (2 Bft) 95,74 %
12.04.2022 02:22 10,6 C 9,4 C 6,1 C 63 % 1012,2 hPa 0,0 l/m 0 min 0 min 0 W/m 12,9 km/h (3 Bft) 97,83 %
12.04.2022 02:24 10,6 C 9,4 C 6,1 C 63 % 1012,2 hPa 0,0 l/m 0 min 0 min 0 W/m 6,4 km/h (2 Bft) 97,87 %
12.04.2022 02:26 10,5 C 9,4 C 6,1 C 63 % 1012,2 hPa 0,0 l/m 0 min 0 min 0 W/m 9,7 km/h (2 Bft) 100,00 %
12.04.2022 02:28 10,5 C 9,4 C 6,1 C 63 % 1012,1 hPa 0,0 l/m 0 min 0 min 0 W/m 12,9 km/h (3 Bft) 97,87 %
12.04.2022 02:30 10,5 C 9,4 C 6,1 C 63 % 1012,1 hPa 0,0 l/m 0 min 0 min 0 W/m 6,4 km/h (2 Bft) 100,00 %
12.04.2022 02:32 10,5 C 9,4 C 6,1 C 63 % 1012,2 hPa 0,0 l/m 0 min 0 min 0 W/m 6,4 km/h (2 Bft) 100,00 %
12.04.2022 02:34 10,5 C 9,4 C 6,1 C 63 % 1012,2 hPa 0,0 l/m 0 min 0 min 0 W/m 6,4 km/h (2 Bft) 97,87 %
12.04.2022 02:36 10,4 C 9,4 C 6,1 C 63 % 1012,2 hPa 0,0 l/m 0 min 0 min 0 W/m 12,9 km/h (3 Bft) 95,74 %
12.04.2022 02:38 10,4 C 9,4 C 6,1 C 63 % 1012,1 hPa 0,0 l/m 0 min 0 min 0 W/m 6,4 km/h (2 Bft) 100,00 %
12.04.2022 02:40 10,4 C 9,4 C 6,1 C 63 % 1012,1 hPa 0,0 l/m 0 min 0 min 0 W/m 3,2 km/h (1 Bft) 100,00 %
12.04.2022 02:42 10,4 C 9,4 C 5,6 C 63 % 1012,1 hPa 0,0 l/m 0 min 0 min 0 W/m 12,9 km/h (3 Bft) 97,87 %
12.04.2022 02:44 10,4 C 9,4 C 5,6 C 64 % 1012,1 hPa 0,0 l/m 0 min 0 min 0 W/m 6,4 km/h (2 Bft) 97,83 %
12.04.2022 02:46 10,4 C 9,4 C 5,6 C 64 % 1012,1 hPa 0,0 l/m 0 min 0 min 0 W/m 3,2 km/h (1 Bft) 97,87 %
12.04.2022 02:48 10,4 C 9,4 C 5,6 C 64 % 1012,1 hPa 0,0 l/m 0 min 0 min 0 W/m 6,4 km/h (2 Bft) 95,74 %
12.04.2022 02:50 10,3 C 9,4 C 5,6 C 64 % 1012,1 hPa 0,0 l/m 0 min 0 min 0 W/m 9,7 km/h (2 Bft) 97,87 %
12.04.2022 02:52 10,3 C 9,4 C 5,6 C 64 % 1012,1 hPa 0,0 l/m 0 min 0 min 0 W/m 12,9 km/h (3 Bft) 97,87 %
12.04.2022 02:54 10,3 C 9,4 C 5,6 C 64 % 1012,1 hPa 0,0 l/m 0 min 0 min 0 W/m 6,4 km/h (2 Bft) 95,74 %
12.04.2022 02:56 10,3 C 9,4 C 5,6 C 64 % 1012,0 hPa 0,0 l/m 0 min 0 min 0 W/m 6,4 km/h (2 Bft) 97,87 %
12.04.2022 02:58 10,3 C 9,4 C 5,6 C 65 % 1012,1 hPa 0,0 l/m 0 min 0 min 0 W/m 6,4 km/h (2 Bft) 97,67 %
12.04.2022 03:00 10,2 C 9,4 C 5,6 C 65 % 1012,0 hPa 0,0 l/m 0 min 0 min 0 W/m 6,4 km/h (2 Bft) 98,28 %
12.04.2022 03:02 10,2 C 8,9 C 5,6 C 65 % 1012,0 hPa 0,0 l/m 0 min 0 min 0 W/m 6,4 km/h (2 Bft) 97,37 %
12.04.2022 03:04 10,2 C 8,9 C 5,6 C 65 % 1012,0 hPa 0,0 l/m 0 min 0 min 0 W/m 6,4 km/h (2 Bft) 97,87 %
12.04.2022 03:06 10,2 C 8,9 C 5,6 C 65 % 1011,9 hPa 0,0 l/m 0 min 0 min 0 W/m 6,4 km/h (2 Bft) 97,87 %
12.04.2022 03:08 10,1 C 8,9 C 5,6 C 65 % 1011,9 hPa 0,0 l/m 0 min 0 min 0 W/m 6,4 km/h (2 Bft) 95,83 %
12.04.2022 03:10 10,1 C 8,9 C 5,6 C 65 % 1011,9 hPa 0,0 l/m 0 min 0 min 0 W/m 6,4 km/h (2 Bft) 95,74 %
12.04.2022 03:12 10,1 C 8,9 C 5,6 C 66 % 1011,9 hPa 0,0 l/m 0 min 0 min 0 W/m 6,4 km/h (2 Bft) 96,30 %
12.04.2022 03:14 10,1 C 8,9 C 5,6 C 66 % 1011,9 hPa 0,0 l/m 0 min 0 min 0 W/m 6,4 km/h (2 Bft) 100,00 %
12.04.2022 03:16 10,1 C 9,4 C 5,6 C 66 % 1011,9 hPa 0,0 l/m 0 min 0 min 0 W/m 6,4 km/h (2 Bft) 100,00 %
12.04.2022 03:18 10,1 C 9,4 C 5,6 C 66 % 1011,9 hPa 0,0 l/m 0 min 0 min 0 W/m 6,4 km/h (2 Bft) 100,00 %
12.04.2022 03:20 10,1 C 9,4 C 5,6 C 66 % 1011,9 hPa 0,0 l/m 0 min 0 min 0 W/m 6,4 km/h (2 Bft) 100,00 %
12.04.2022 03:22 10,1 C 8,9 C 5,6 C 66 % 1011,9 hPa 0,0 l/m 0 min 0 min 0 W/m 6,4 km/h (2 Bft) 100,00 %
12.04.2022 03:24 10,0 C 8,9 C 5,6 C 66 % 1011,9 hPa 0,0 l/m 0 min 0 min 0 W/m 6,4 km/h (2 Bft) 100,00 %
12.04.2022 03:26 10,0 C 8,9 C 5,6 C 66 % 1011,8 hPa 0,0 l/m 0 min 0 min 0 W/m 6,4 km/h (2 Bft) 100,00 %
12.04.2022 03:28 10,0 C 8,9 C 5,6 C 66 % 1011,8 hPa 0,0 l/m 0 min 0 min 0 W/m 6,4 km/h (2 Bft) 100,00 %
12.04.2022 03:30 10,0 C 9,4 C 5,6 C 66 % 1011,8 hPa 0,0 l/m 0 min 0 min 0 W/m 6,4 km/h (2 Bft) 100,00 %
12.04.2022 03:32 10,0 C 9,4 C 5,6 C 66 % 1011,8 hPa 0,0 l/m 0 min 0 min 0 W/m 6,4 km/h (2 Bft) 42,86 %
12.04.2022 03:34 10,0 C 9,4 C 5,6 C 66 % 1011,7 hPa 0,0 l/m 0 min 0 min 0 W/m 6,4 km/h (2 Bft) 100,00 %
12.04.2022 03:36 10,0 C 9,4 C 5,6 C 66 % 1011,6 hPa 0,0 l/m 0 min 0 min 0 W/m 6,4 km/h (2 Bft) 100,00 %
12.04.2022 03:38 10,0 C 9,4 C 5,6 C 66 % 1011,5 hPa 0,0 l/m 0 min 0 min 0 W/m 6,4 km/h (2 Bft) 100,00 %
12.04.2022 03:40 10,0 C 9,4 C 5,6 C 66 % 1011,5 hPa 0,0 l/m 0 min 0 min 0 W/m 6,4 km/h (2 Bft) 97,87 %
12.04.2022 03:42 10,1 C 9,4 C 5,6 C 66 % 1011,4 hPa 0,0 l/m 0 min 0 min 0 W/m 12,9 km/h (3 Bft) 97,87 %
12.04.2022 03:44 10,1 C 9,4 C 5,6 C 66 % 1011,5 hPa 0,0 l/m 0 min 0 min 0 W/m 12,9 km/h (3 Bft) 100,00 %
12.04.2022 03:46 10,1 C 9,4 C 5,6 C 66 % 1011,5 hPa 0,0 l/m 0 min 0 min 0 W/m 9,7 km/h (2 Bft) 100,00 %
12.04.2022 03:48 10,1 C 9,4 C 5,6 C 66 % 1011,4 hPa 0,0 l/m 0 min 0 min 0 W/m 9,7 km/h (2 Bft) 100,00 %
12.04.2022 03:50 10,1 C 9,4 C 5,6 C 66 % 1011,5 hPa 0,0 l/m 0 min 0 min 0 W/m 12,9 km/h (3 Bft) 100,00 %
12.04.2022 03:52 10,1 C 9,4 C 5,6 C 66 % 1011,5 hPa 0,0 l/m 0 min 0 min 0 W/m 16,1 km/h (3 Bft) 97,87 %
12.04.2022 03:54 10,2 C 9,4 C 5,6 C 66 % 1011,4 hPa 0,0 l/m 0 min 0 min 0 W/m 6,4 km/h (2 Bft) 97,87 %
12.04.2022 03:56 10,2 C 9,4 C 5,6 C 66 % 1011,5 hPa 0,0 l/m 0 min 0 min 0 W/m 12,9 km/h (3 Bft) 98,15 %
12.04.2022 03:58 10,2 C 9,4 C 5,6 C 66 % 1011,4 hPa 0,0 l/m 0 min 0 min 0 W/m 6,4 km/h (2 Bft) 97,87 %
12.04.2022 04:00 10,2 C 9,4 C 5,6 C 66 % 1011,4 hPa 0,0 l/m 0 min 0 min 0 W/m 6,4 km/h (2 Bft) 97,87 %
12.04.2022 04:05 10,2 C 9,4 C 5,6 C 66 % 1011,4 hPa 0,0 l/m 0 min 0 min 0 W/m 6,4 km/h (2 Bft) 100,00 %
12.04.2022 04:06 10,2 C 9,4 C 5,6 C 66 % 1011,5 hPa 0,0 l/m 0 min 0 min 0 W/m 12,9 km/h (3 Bft) 100,00 %
12.04.2022 04:08 10,2 C 9,4 C 5,6 C 66 % 1011,5 hPa 0,0 l/m 0 min 0 min 0 W/m 12,9 km/h (3 Bft) 97,87 %
12.04.2022 04:10 10,2 C 9,4 C 5,6 C 66 % 1011,5 hPa 0,0 l/m 0 min 0 min 0 W/m 6,4 km/h (2 Bft) 97,37 %
12.04.2022 04:12 10,2 C 9,4 C 5,6 C 66 % 1011,5 hPa 0,0 l/m 0 min 0 min 0 W/m 6,4 km/h (2 Bft) 97,87 %
12.04.2022 04:14 10,2 C 9,4 C 5,6 C 66 % 1011,5 hPa 0,0 l/m 0 min 0 min 0 W/m 3,2 km/h (1 Bft) 97,87 %
12.04.2022 04:16 10,2 C 9,4 C 5,6 C 66 % 1011,6 hPa 0,0 l/m 0 min 0 min 0 W/m 16,1 km/h (3 Bft) 97,87 %
12.04.2022 04:18 10,2 C 9,4 C 5,6 C 66 % 1011,5 hPa 0,0 l/m 0 min 0 min 0 W/m 3,2 km/h (1 Bft) 93,48 %
12.04.2022 04:20 10,2 C 9,4 C 5,6 C 66 % 1011,5 hPa 0,0 l/m 0 min 0 min 0 W/m 12,9 km/h (3 Bft) 95,74 %
12.04.2022 04:22 10,2 C 9,4 C 5,6 C 66 % 1011,5 hPa 0,0 l/m 0 min 0 min 0 W/m 6,4 km/h (2 Bft) 95,74 %
12.04.2022 04:24 10,2 C 9,4 C 5,6 C 66 % 1011,5 hPa 0,0 l/m 0 min 0 min 0 W/m 9,7 km/h (2 Bft) 97,87 %
12.04.2022 04:26 10,2 C 9,4 C 5,6 C 66 % 1011,5 hPa 0,0 l/m 0 min 0 min 0 W/m 6,4 km/h (2 Bft) 97,87 %
12.04.2022 04:28 10,2 C 9,4 C 6,1 C 66 % 1011,5 hPa 0,0 l/m 0 min 0 min 0 W/m 12,9 km/h (3 Bft) 93,62 %
12.04.2022 04:30 10,2 C 9,4 C 6,1 C 66 % 1011,5 hPa 0,0 l/m 0 min 0 min 0 W/m 6,4 km/h (2 Bft) 95,65 %
12.04.2022 04:32 10,3 C 9,4 C 6,1 C 66 % 1011,5 hPa 0,0 l/m 0 min 0 min 0 W/m 6,4 km/h (2 Bft) 95,74 %
12.04.2022 04:34 10,3 C 9,4 C 6,1 C 66 % 1011,5 hPa 0,0 l/m 0 min 0 min 0 W/m 6,4 km/h (2 Bft) 93,62 %
12.04.2022 04:36 10,3 C 9,4 C 6,1 C 66 % 1011,5 hPa 0,0 l/m 0 min 0 min 0 W/m 3,2 km/h (1 Bft) 93,62 %
12.04.2022 04:38 10,3 C 9,4 C 6,1 C 66 % 1011,5 hPa 0,0 l/m 0 min 0 min 0 W/m 6,4 km/h (2 Bft) 91,67 %
12.04.2022 04:40 10,3 C 9,4 C 6,1 C 66 % 1011,5 hPa 0,0 l/m 0 min 0 min 0 W/m 12,9 km/h (3 Bft) 93,62 %
12.04.2022 04:42 10,3 C 9,4 C 6,1 C 65 % 1011,5 hPa 0,0 l/m 0 min 0 min 0 W/m 12,9 km/h (3 Bft) 91,49 %
12.04.2022 04:44 10,3 C 9,4 C 6,1 C 65 % 1011,4 hPa 0,0 l/m 0 min 0 min 0 W/m 12,9 km/h (3 Bft) 92,59 %
12.04.2022 04:46 10,3 C 9,4 C 6,1 C 65 % 1011,4 hPa 0,0 l/m 0 min 0 min 0 W/m 6,4 km/h (2 Bft) 93,62 %
12.04.2022 04:48 10,3 C 9,4 C 6,1 C 66 % 1011,4 hPa 0,0 l/m 0 min 0 min 0 W/m 6,4 km/h (2 Bft) 93,62 %
12.04.2022 04:50 10,3 C 9,4 C 6,1 C 66 % 1011,4 hPa 0,0 l/m 0 min 0 min 0 W/m 9,7 km/h (2 Bft) 93,48 %
12.04.2022 04:52 10,3 C 9,4 C 5,6 C 66 % 1011,4 hPa 0,0 l/m 0 min 0 min 0 W/m 6,4 km/h (2 Bft) 93,62 %
12.04.2022 04:54 10,3 C 9,4 C 5,6 C 66 % 1011,4 hPa 0,0 l/m 0 min 0 min 0 W/m 6,4 km/h (2 Bft) 93,62 %
12.04.2022 04:56 10,3 C 9,4 C 5,6 C 66 % 1011,5 hPa 0,0 l/m 0 min 0 min 0 W/m 6,4 km/h (2 Bft) 91,49 %
12.04.2022 04:58 10,3 C 9,4 C 5,6 C 66 % 1011,5 hPa 0,0 l/m 0 min 0 min 0 W/m 16,1 km/h (3 Bft) 95,74 %
12.04.2022 05:00 10,3 C 9,4 C 5,6 C 66 % 1011,5 hPa 0,0 l/m 0 min 0 min 0 W/m 9,7 km/h (2 Bft) 94,74 %
12.04.2022 05:02 10,3 C 9,4 C 5,6 C 66 % 1011,4 hPa 0,0 l/m 0 min 0 min 0 W/m 6,4 km/h (2 Bft) 95,74 %
12.04.2022 05:04 10,3 C 9,4 C 5,6 C 66 % 1011,4 hPa 0,0 l/m 0 min 0 min 0 W/m 12,9 km/h (3 Bft) 95,65 %
12.04.2022 05:06 10,3 C 9,4 C 5,6 C 66 % 1011,4 hPa 0,0 l/m 0 min 0 min 0 W/m 12,9 km/h (3 Bft) 96,00 %
12.04.2022 05:08 10,3 C 9,4 C 5,6 C 66 % 1011,3 hPa 0,0 l/m 0 min 0 min 0 W/m 12,9 km/h (3 Bft) 97,87 %
12.04.2022 05:10 10,3 C 9,4 C 5,6 C 66 % 1011,4 hPa 0,0 l/m 0 min 0 min 0 W/m 12,9 km/h (3 Bft) 97,87 %
12.04.2022 05:12 10,3 C 9,4 C 5,6 C 66 % 1011,4 hPa 0,0 l/m 0 min 0 min 0 W/m 16,1 km/h (3 Bft) 97,87 %
12.04.2022 05:14 10,3 C 9,4 C 5,6 C 66 % 1011,4 hPa 0,0 l/m 0 min 0 min 0 W/m 12,9 km/h (3 Bft) 95,65 %
12.04.2022 05:16 10,3 C 9,4 C 5,6 C 66 % 1011,4 hPa 0,0 l/m 0 min 0 min 0 W/m 9,7 km/h (2 Bft) 97,87 %
12.04.2022 05:18 10,3 C 9,4 C 5,6 C 66 % 1011,3 hPa 0,0 l/m 0 min 0 min 0 W/m 6,4 km/h (2 Bft) 97,87 %
12.04.2022 05:20 10,2 C 9,4 C 5,6 C 66 % 1011,3 hPa 0,0 l/m 0 min 0 min 0 W/m 12,9 km/h (3 Bft) 100,00 %
12.04.2022 05:22 10,3 C 9,4 C 5,6 C 66 % 1011,2 hPa 0,0 l/m 0 min 0 min 0 W/m 16,1 km/h (3 Bft) 100,00 %
12.04.2022 05:24 10,2 C 9,4 C 5,6 C 66 % 1011,2 hPa 0,0 l/m 0 min 0 min 0 W/m 12,9 km/h (3 Bft) 100,00 %
12.04.2022 05:26 10,2 C 9,4 C 5,6 C 66 % 1011,2 hPa 0,0 l/m 0 min 0 min 0 W/m 12,9 km/h (3 Bft) 100,00 %
12.04.2022 05:28 10,2 C 9,4 C 5,6 C 66 % 1011,3 hPa 0,0 l/m 0 min 0 min 0 W/m 6,4 km/h (2 Bft) 95,74 %
12.04.2022 05:30 10,2 C 9,4 C 5,6 C 67 % 1011,3 hPa 0,0 l/m 0 min 0 min 0 W/m 6,4 km/h (2 Bft) 97,87 %
12.04.2022 05:32 10,1 C 8,9 C 5,6 C 66 % 1011,3 hPa 0,0 l/m 0 min 0 min 0 W/m 6,4 km/h (2 Bft) 100,00 %
12.04.2022 05:34 10,1 C 8,9 C 5,6 C 66 % 1011,3 hPa 0,0 l/m 0 min 0 min 0 W/m 3,2 km/h (1 Bft) 100,00 %
12.04.2022 05:36 10,1 C 8,9 C 5,6 C 67 % 1011,2 hPa 0,0 l/m 0 min 0 min 0 W/m 3,2 km/h (1 Bft) 97,87 %
12.04.2022 05:38 10,1 C 8,9 C 5,6 C 67 % 1011,1 hPa 0,0 l/m 0 min 0 min 0 W/m 6,4 km/h (2 Bft) 100,00 %
12.04.2022 05:40 10,1 C 8,9 C 5,6 C 67 % 1011,1 hPa 0,0 l/m 0 min 0 min 0 W/m 6,4 km/h (2 Bft) 100,00 %
12.04.2022 05:42 10,1 C 8,9 C 5,6 C 67 % 1011,0 hPa 0,0 l/m 0 min 0 min 0 W/m 6,4 km/h (2 Bft) 100,00 %
12.04.2022 05:44 10,0 C 8,9 C 5,6 C 67 % 1011,0 hPa 0,0 l/m 0 min 0 min 0 W/m 6,4 km/h (2 Bft) 100,00 %
12.04.2022 05:46 10,0 C 8,9 C 5,6 C 67 % 1010,9 hPa 0,0 l/m 0 min 0 min 0 W/m 12,9 km/h (3 Bft) 100,00 %
12.04.2022 05:48 9,9 C 8,9 C 5,0 C 67 % 1010,9 hPa 0,0 l/m 0 min 0 min 0 W/m 3,2 km/h (1 Bft) 100,00 %
12.04.2022 05:50 9,9 C 8,9 C 5,0 C 68 % 1010,9 hPa 0,0 l/m 0 min 0 min 0 W/m 3,2 km/h (1 Bft) 100,00 %
12.04.2022 05:52 9,9 C 8,9 C 5,0 C 68 % 1010,9 hPa 0,0 l/m 0 min 0 min 0 W/m 6,4 km/h (2 Bft) 100,00 %
12.04.2022 05:54 9,8 C 8,3 C 5,0 C 68 % 1010,9 hPa 0,0 l/m 0 min 0 min 0 W/m 3,2 km/h (1 Bft) 100,00 %
12.04.2022 05:56 9,8 C 8,3 C 5,0 C 68 % 1011,0 hPa 0,0 l/m 0 min 0 min 0 W/m 3,2 km/h (1 Bft) 100,00 %
12.04.2022 05:58 9,8 C 8,3 C 5,0 C 68 % 1011,1 hPa 0,0 l/m 0 min 0 min 0 W/m 3,2 km/h (1 Bft) 100,00 %
12.04.2022 06:00 9,8 C 8,3 C 5,0 C 68 % 1011,1 hPa 0,0 l/m 0 min 0 min 0 W/m 6,4 km/h (2 Bft) 100,00 %
12.04.2022 06:02 9,8 C 8,3 C 5,0 C 68 % 1011,0 hPa 0,0 l/m 0 min 0 min 0 W/m 3,2 km/h (1 Bft) 97,83 %
12.04.2022 06:04 9,7 C 8,9 C 5,0 C 68 % 1011,0 hPa 0,0 l/m 0 min 0 min 0 W/m 3,2 km/h (1 Bft) 100,00 %
12.04.2022 06:08 9,7 C 8,3 C 5,0 C 68 % 1011,0 hPa 0,0 l/m 0 min 0 min 0 W/m 3,2 km/h (1 Bft) 98,92 %
12.04.2022 06:10 9,7 C 8,3 C 5,0 C 68 % 1011,0 hPa 0,0 l/m 0 min 0 min 0 W/m 6,4 km/h (2 Bft) 100,00 %
12.04.2022 06:12 9,6 C 8,3 C 5,0 C 68 % 1011,1 hPa 0,0 l/m 0 min 0 min 0 W/m 6,4 km/h (2 Bft) 97,87 %
12.04.2022 06:14 9,6 C 8,3 C 5,0 C 68 % 1011,0 hPa 0,0 l/m 0 min 0 min 0 W/m 6,4 km/h (2 Bft) 100,00 %
12.04.2022 06:16 9,6 C 8,3 C 5,0 C 68 % 1011,0 hPa 0,0 l/m 0 min 0 min 0 W/m 6,4 km/h (2 Bft) 100,00 %
12.04.2022 06:18 9,6 C 8,3 C 5,0 C 68 % 1011,0 hPa 0,0 l/m 0 min 0 min 0 W/m 16,1 km/h (3 Bft) 100,00 %
12.04.2022 06:20 9,6 C 8,3 C 5,0 C 68 % 1011,0 hPa 0,0 l/m 0 min 0 min 0 W/m 6,4 km/h (2 Bft) 97,87 %
12.04.2022 06:22 9,6 C 8,3 C 5,0 C 68 % 1011,0 hPa 0,0 l/m 0 min 0 min 0 W/m 12,9 km/h (3 Bft) 100,00 %
12.04.2022 06:24 9,5 C 8,3 C 5,0 C 68 % 1011,0 hPa 0,0 l/m 0 min 0 min 0 W/m 9,7 km/h (2 Bft) 100,00 %
12.04.2022 06:26 9,5 C 8,3 C 5,0 C 68 % 1011,0 hPa 0,0 l/m 0 min 0 min 0 W/m 6,4 km/h (2 Bft) 97,87 %
12.04.2022 06:28 9,5 C 8,3 C 5,0 C 68 % 1011,0 hPa 0,0 l/m 0 min 0 min 0 W/m 12,9 km/h (3 Bft) 95,65 %
12.04.2022 06:30 9,4 C 8,3 C 5,0 C 68 % 1011,0 hPa 0,0 l/m 0 min 0 min 0 W/m 12,9 km/h (3 Bft) 97,87 %
12.04.2022 06:32 9,4 C 8,3 C 5,0 C 68 % 1011,1 hPa 0,0 l/m 0 min 0 min 0 W/m 9,7 km/h (2 Bft) 97,87 %
12.04.2022 06:34 9,4 C 8,3 C 5,0 C 68 % 1011,1 hPa 0,0 l/m 0 min 0 min 0 W/m 12,9 km/h (3 Bft) 95,74 %
12.04.2022 06:36 9,4 C 8,3 C 5,0 C 68 % 1011,2 hPa 0,0 l/m 0 min 0 min 0 W/m 12,9 km/h (3 Bft) 97,87 %
12.04.2022 06:38 9,4 C 8,3 C 5,0 C 68 % 1011,1 hPa 0,0 l/m 0 min 0 min 0 W/m 12,9 km/h (3 Bft) 97,87 %
12.04.2022 06:40 9,4 C 8,3 C 5,0 C 68 % 1011,1 hPa 0,0 l/m 0 min 0 min 0 W/m 12,9 km/h (3 Bft) 95,65 %
12.04.2022 06:42 9,4 C 8,3 C 5,0 C 68 % 1011,1 hPa 0,0 l/m 0 min 0 min 0 W/m 12,9 km/h (3 Bft) 95,74 %
12.04.2022 06:44 9,4 C 8,3 C 5,0 C 68 % 1011,1 hPa 0,0 l/m 0 min 0 min 0 W/m 6,4 km/h (2 Bft) 95,74 %
12.04.2022 06:46 9,4 C 8,3 C 5,0 C 68 % 1011,1 hPa 0,0 l/m 0 min 0 min 0 W/m 12,9 km/h (3 Bft) 91,49 %
12.04.2022 06:48 9,4 C 8,3 C 5,0 C 68 % 1011,1 hPa 0,0 l/m 0 min 0 min 0 W/m 9,7 km/h (2 Bft) 95,74 %
12.04.2022 06:50 9,4 C 8,3 C 5,0 C 68 % 1011,2 hPa 0,0 l/m 0 min 0 min 0 W/m 6,4 km/h (2 Bft) 95,74 %
12.04.2022 06:52 9,4 C 8,3 C 5,0 C 68 % 1011,1 hPa 0,0 l/m 0 min 0 min 0 W/m 3,2 km/h (1 Bft) 95,65 %
12.04.2022 06:54 9,4 C 8,3 C 5,0 C 69 % 1011,1 hPa 0,0 l/m 0 min 0 min 3 W/m 6,4 km/h (2 Bft) 95,74 %
12.04.2022 06:56 9,4 C 8,3 C 5,0 C 69 % 1011,1 hPa 0,0 l/m 0 min 0 min 5 W/m 6,4 km/h (2 Bft) 95,74 %
12.04.2022 06:58 9,4 C 8,3 C 5,0 C 69 % 1011,1 hPa 0,0 l/m 0 min 0 min 5 W/m 6,4 km/h (2 Bft) 97,87 %
12.04.2022 07:00 9,3 C 8,3 C 5,0 C 69 % 1011,2 hPa 0,0 l/m 0 min 0 min 7 W/m 9,7 km/h (2 Bft) 95,74 %
12.04.2022 07:02 9,3 C 8,3 C 5,0 C 69 % 1011,1 hPa 0,0 l/m 0 min 0 min 7 W/m 6,4 km/h (2 Bft) 97,87 %
12.04.2022 07:04 9,3 C 8,3 C 5,0 C 69 % 1011,2 hPa 0,0 l/m 0 min 0 min 7 W/m 6,4 km/h (2 Bft) 97,83 %
12.04.2022 07:06 9,3 C 8,3 C 5,0 C 69 % 1011,1 hPa 0,0 l/m 0 min 0 min 9 W/m 6,4 km/h (2 Bft) 97,87 %
12.04.2022 07:08 9,3 C 8,3 C 5,0 C 69 % 1011,1 hPa 0,0 l/m 0 min 0 min 9 W/m 6,4 km/h (2 Bft) 97,87 %
12.04.2022 07:10 9,3 C 8,3 C 5,0 C 69 % 1011,1 hPa 0,0 l/m 0 min 0 min 10 W/m 6,4 km/h (2 Bft) 97,87 %
12.04.2022 07:12 9,3 C 8,3 C 5,0 C 70 % 1011,1 hPa 0,0 l/m 0 min 0 min 11 W/m 6,4 km/h (2 Bft) 95,74 %
12.04.2022 07:14 9,3 C 8,3 C 5,0 C 70 % 1011,1 hPa 0,0 l/m 0 min 0 min 12 W/m 16,1 km/h (3 Bft) 97,87 %
12.04.2022 07:16 9,2 C 8,3 C 5,0 C 70 % 1011,1 hPa 0,0 l/m 0 min 0 min 13 W/m 6,4 km/h (2 Bft) 97,83 %
12.04.2022 07:18 9,2 C 8,3 C 5,0 C 70 % 1011,0 hPa 0,0 l/m 0 min 0 min 15 W/m 6,4 km/h (2 Bft) 97,87 %
12.04.2022 07:20 9,2 C 8,3 C 5,0 C 70 % 1011,0 hPa 0,0 l/m 0 min 0 min 17 W/m 6,4 km/h (2 Bft) 97,87 %
12.04.2022 07:22 9,2 C 8,3 C 5,0 C 70 % 1010,9 hPa 0,0 l/m 0 min 0 min 18 W/m 9,7 km/h (2 Bft) 97,87 %
12.04.2022 07:24 9,2 C 8,3 C 5,0 C 70 % 1011,0 hPa 0,0 l/m 0 min 0 min 20 W/m 12,9 km/h (3 Bft) 97,87 %
12.04.2022 07:26 9,2 C 8,3 C 5,0 C 70 % 1010,9 hPa 0,0 l/m 0 min 0 min 22 W/m 16,1 km/h (3 Bft) 97,83 %
12.04.2022 07:28 9,2 C 8,3 C 5,0 C 70 % 1010,9 hPa 0,0 l/m 0 min 0 min 24 W/m 6,4 km/h (2 Bft) 100,00 %
12.04.2022 07:30 9,3 C 8,3 C 5,0 C 70 % 1011,1 hPa 0,0 l/m 0 min 0 min 25 W/m 6,4 km/h (2 Bft) 97,87 %
12.04.2022 07:32 9,3 C 8,9 C 5,0 C 70 % 1011,0 hPa 0,0 l/m 0 min 0 min 26 W/m 12,9 km/h (3 Bft) 97,87 %
12.04.2022 07:34 9,3 C 8,9 C 5,0 C 70 % 1011,0 hPa 0,0 l/m 0 min 0 min 26 W/m 12,9 km/h (3 Bft) 97,87 %
12.04.2022 07:36 9,3 C 8,9 C 5,0 C 70 % 1011,1 hPa 0,0 l/m 0 min 0 min 26 W/m 12,9 km/h (3 Bft) 97,87 %
12.04.2022 07:38 9,3 C 8,9 C 5,0 C 70 % 1011,1 hPa 0,0 l/m 0 min 0 min 28 W/m 12,9 km/h (3 Bft) 97,83 %
12.04.2022 07:40 9,4 C 8,9 C 5,0 C 70 % 1011,1 hPa 0,0 l/m 0 min 0 min 28 W/m 9,7 km/h (2 Bft) 97,87 %
12.04.2022 07:42 9,4 C 8,9 C 5,0 C 70 % 1011,2 hPa 0,0 l/m 0 min 0 min 26 W/m 12,9 km/h (3 Bft) 97,87 %
12.04.2022 07:44 9,5 C 8,9 C 5,0 C 70 % 1011,3 hPa 0,0 l/m 0 min 0 min 26 W/m 12,9 km/h (3 Bft) 95,74 %
12.04.2022 07:46 9,6 C 8,9 C 5,0 C 70 % 1011,3 hPa 0,0 l/m 0 min 0 min 26 W/m 6,4 km/h (2 Bft) 97,87 %
12.04.2022 07:48 9,6 C 8,9 C 5,0 C 70 % 1011,2 hPa 0,0 l/m 0 min 0 min 26 W/m 16,1 km/h (3 Bft) 97,87 %
12.04.2022 07:50 9,6 C 8,9 C 5,6 C 70 % 1011,3 hPa 0,0 l/m 0 min 0 min 26 W/m 16,1 km/h (3 Bft) 95,65 %
12.04.2022 07:52 9,6 C 8,9 C 5,6 C 70 % 1011,3 hPa 0,0 l/m 0 min 0 min 26 W/m 12,9 km/h (3 Bft) 97,87 %
12.04.2022 07:54 9,7 C 8,9 C 5,6 C 70 % 1011,3 hPa 0,0 l/m 0 min 0 min 26 W/m 6,4 km/h (2 Bft) 97,87 %
12.04.2022 07:56 9,7 C 8,9 C 5,6 C 70 % 1011,3 hPa 0,0 l/m 0 min 0 min 28 W/m 16,1 km/h (3 Bft) 95,74 %
12.04.2022 07:58 9,7 C 9,4 C 5,6 C 70 % 1011,3 hPa 0,0 l/m 0 min 0 min 29 W/m 12,9 km/h (3 Bft) 97,87 %
12.04.2022 08:00 9,8 C 9,4 C 5,6 C 70 % 1011,3 hPa 0,0 l/m 0 min 0 min 31 W/m 16,1 km/h (3 Bft) 97,83 %
12.04.2022 08:02 9,8 C 9,4 C 5,6 C 70 % 1011,3 hPa 0,0 l/m 0 min 0 min 32 W/m 9,7 km/h (2 Bft) 95,74 %
12.04.2022 08:04 9,8 C 9,4 C 5,6 C 70 % 1011,2 hPa 0,0 l/m 0 min 0 min 33 W/m 12,9 km/h (3 Bft) 97,96 %
12.04.2022 08:06 9,8 C 9,4 C 5,6 C 70 % 1011,2 hPa 0,0 l/m 0 min 0 min 35 W/m 12,9 km/h (3 Bft) 95,74 %
12.04.2022 08:08 9,8 C 9,4 C 5,6 C 70 % 1011,3 hPa 0,0 l/m 0 min 0 min 35 W/m 9,7 km/h (2 Bft) 97,83 %
12.04.2022 08:10 9,9 C 9,4 C 5,6 C 70 % 1011,3 hPa 0,0 l/m 0 min 0 min 36 W/m 12,9 km/h (3 Bft) 97,87 %
12.04.2022 08:12 9,9 C 9,4 C 5,6 C 70 % 1011,3 hPa 0,0 l/m 0 min 0 min 39 W/m 22,5 km/h (4 Bft) 95,74 %
12.04.2022 08:14 10,0 C 9,4 C 5,6 C 70 % 1011,3 hPa 0,0 l/m 0 min 0 min 40 W/m 6,4 km/h (2 Bft) 97,87 %
12.04.2022 08:16 10,1 C 9,4 C 5,6 C 70 % 1011,3 hPa 0,0 l/m 0 min 0 min 41 W/m 16,1 km/h (3 Bft) 97,87 %
12.04.2022 08:18 10,1 C 10,0 C 6,1 C 70 % 1011,2 hPa 0,0 l/m 0 min 0 min 43 W/m 16,1 km/h (3 Bft) 95,74 %
12.04.2022 08:20 10,2 C 10,0 C 6,1 C 70 % 1011,2 hPa 0,0 l/m 0 min 0 min 44 W/m 16,1 km/h (3 Bft) 97,87 %
12.04.2022 08:22 10,2 C 10,0 C 6,1 C 70 % 1011,2 hPa 0,0 l/m 0 min 0 min 46 W/m 12,9 km/h (3 Bft) 97,83 %
12.04.2022 08:24 10,3 C 10,0 C 6,1 C 69 % 1011,2 hPa 0,0 l/m 0 min 0 min 47 W/m 19,3 km/h (3 Bft) 97,87 %
12.04.2022 08:26 10,4 C 10,0 C 6,1 C 69 % 1011,2 hPa 0,0 l/m 0 min 0 min 47 W/m 16,1 km/h (3 Bft) 93,62 %
12.04.2022 08:28 10,5 C 10,0 C 6,1 C 69 % 1011,2 hPa 0,0 l/m 0 min 0 min 50 W/m 16,1 km/h (3 Bft) 97,87 %
12.04.2022 08:30 10,6 C 10,6 C 6,1 C 69 % 1011,2 hPa 0,0 l/m 0 min 0 min 51 W/m 19,3 km/h (3 Bft) 97,87 %
12.04.2022 08:32 10,6 C 10,6 C 6,1 C 68 % 1011,2 hPa 0,0 l/m 0 min 0 min 53 W/m 16,1 km/h (3 Bft) 97,87 %
12.04.2022 08:34 10,7 C 10,6 C 6,7 C 68 % 1011,1 hPa 0,0 l/m 0 min 0 min 54 W/m 9,7 km/h (2 Bft) 97,83 %
12.04.2022 08:36 10,8 C 10,6 C 6,7 C 68 % 1011,1 hPa 0,0 l/m 0 min 0 min 54 W/m 16,1 km/h (3 Bft) 93,62 %
12.04.2022 08:38 10,8 C 10,6 C 6,7 C 68 % 1011,1 hPa 0,0 l/m 0 min 0 min 54 W/m 16,1 km/h (3 Bft) 97,87 %
12.04.2022 08:40 10,9 C 10,6 C 6,7 C 68 % 1011,1 hPa 0,0 l/m 0 min 0 min 60 W/m 16,1 km/h (3 Bft) 97,87 %
12.04.2022 08:42 10,9 C 10,6 C 6,7 C 68 % 1011,0 hPa 0,0 l/m 0 min 0 min 64 W/m 16,1 km/h (3 Bft) 97,87 %
12.04.2022 08:44 11,0 C 10,6 C 6,7 C 67 % 1011,1 hPa 0,0 l/m 0 min 0 min 69 W/m 12,9 km/h (3 Bft) 97,83 %
12.04.2022 08:46 11,1 C 11,1 C 6,7 C 67 % 1011,1 hPa 0,0 l/m 0 min 0 min 74 W/m 12,9 km/h (3 Bft) 97,87 %
12.04.2022 08:48 11,1 C 11,1 C 6,7 C 67 % 1011,1 hPa 0,0 l/m 0 min 0 min 79 W/m 19,3 km/h (3 Bft) 95,74 %
12.04.2022 08:50 11,2 C 11,1 C 6,7 C 67 % 1011,2 hPa 0,0 l/m 0 min 0 min 88 W/m 22,5 km/h (4 Bft) 97,87 %
12.04.2022 08:52 11,3 C 11,1 C 7,2 C 67 % 1011,1 hPa 0,0 l/m 0 min 0 min 96 W/m 19,3 km/h (3 Bft) 97,87 %
12.04.2022 08:54 11,4 C 11,1 C 7,2 C 67 % 1011,2 hPa 0,0 l/m 0 min 0 min 119 W/m 22,5 km/h (4 Bft) 100,00 %
12.04.2022 08:56 11,4 C 11,7 C 7,2 C 66 % 1011,2 hPa 0,0 l/m 2 min 0 min 233 W/m 16,1 km/h (3 Bft) 100,00 %
12.04.2022 08:58 11,6 C 11,7 C 7,2 C 66 % 1011,1 hPa 0,0 l/m 2 min 0 min 293 W/m 19,3 km/h (3 Bft) 100,00 %
12.04.2022 09:00 11,6 C 11,7 C 7,2 C 66 % 1011,2 hPa 0,0 l/m 2 min 0 min 304 W/m 19,3 km/h (3 Bft) 100,00 %
12.04.2022 09:02 11,7 C 11,7 C 7,2 C 66 % 1011,2 hPa 0,0 l/m 2 min 0 min 329 W/m 22,5 km/h (4 Bft) 97,87 %
12.04.2022 09:04 11,8 C 11,7 C 7,2 C 66 % 1011,3 hPa 0,0 l/m 2 min 0 min 330 W/m 22,5 km/h (4 Bft) 100,00 %
12.04.2022 09:06 11,9 C 12,2 C 7,8 C 66 % 1011,3 hPa 0,0 l/m 2 min 0 min 310 W/m 12,9 km/h (3 Bft) 100,00 %
12.04.2022 09:08 12,0 C 12,2 C 7,8 C 66 % 1011,3 hPa 0,0 l/m 2 min 0 min 336 W/m 16,1 km/h (3 Bft) 100,00 %
12.04.2022 09:10 12,1 C 12,8 C 7,8 C 65 % 1011,3 hPa 0,0 l/m 2 min 0 min 320 W/m 22,5 km/h (4 Bft) 100,00 %
12.04.2022 09:12 12,2 C 13,3 C 7,8 C 64 % 1011,3 hPa 0,0 l/m 2 min 0 min 223 W/m 25,7 km/h (4 Bft) 95,74 %
12.04.2022 09:14 12,3 C 13,9 C 7,8 C 64 % 1011,3 hPa 0,0 l/m 2 min 0 min 333 W/m 19,3 km/h (3 Bft) 100,00 %
12.04.2022 09:16 12,4 C 14,4 C 7,8 C 64 % 1011,2 hPa 0,0 l/m 2 min 0 min 326 W/m 16,1 km/h (3 Bft) 100,00 %
12.04.2022 09:18 12,5 C 15,0 C 7,8 C 64 % 1011,2 hPa 0,0 l/m 2 min 0 min 352 W/m 16,1 km/h (3 Bft) 100,00 %
12.04.2022 09:20 12,6 C 15,6 C 7,8 C 63 % 1011,2 hPa 0,0 l/m 2 min 0 min 384 W/m 19,3 km/h (3 Bft) 100,00 %
12.04.2022 09:22 12,7 C 15,6 C 8,3 C 63 % 1011,3 hPa 0,0 l/m 2 min 0 min 376 W/m 22,5 km/h (4 Bft) 97,87 %
12.04.2022 09:24 12,8 C 16,1 C 8,3 C 63 % 1011,3 hPa 0,0 l/m 2 min 0 min 350 W/m 12,9 km/h (3 Bft) 97,83 %
12.04.2022 09:26 12,9 C 16,7 C 8,3 C 63 % 1011,3 hPa 0,0 l/m 2 min 0 min 408 W/m 19,3 km/h (3 Bft) 97,87 %
12.04.2022 09:28 13,1 C 16,7 C 8,3 C 62 % 1011,3 hPa 0,0 l/m 2 min 0 min 428 W/m 16,1 km/h (3 Bft) 97,87 %
12.04.2022 09:30 13,2 C 17,2 C 8,9 C 62 % 1011,2 hPa 0,0 l/m 2 min 0 min 420 W/m 19,3 km/h (3 Bft) 97,87 %
12.04.2022 09:32 13,3 C 16,7 C 8,9 C 62 % 1011,2 hPa 0,0 l/m 2 min 0 min 439 W/m 22,5 km/h (4 Bft) 97,87 %
12.04.2022 09:34 13,4 C 17,2 C 8,9 C 62 % 1011,1 hPa 0,0 l/m 2 min 0 min 442 W/m 16,1 km/h (3 Bft) 97,87 %
12.04.2022 09:36 13,5 C 17,8 C 8,9 C 61 % 1011,2 hPa 0,0 l/m 2 min 0 min 447 W/m 12,9 km/h (3 Bft) 97,83 %
12.04.2022 09:38 13,6 C 17,2 C 8,9 C 61 % 1011,2 hPa 0,0 l/m 2 min 0 min 439 W/m 22,5 km/h (4 Bft) 97,87 %
12.04.2022 09:40 13,7 C 16,7 C 8,9 C 61 % 1011,2 hPa 0,0 l/m 2 min 0 min 438 W/m 19,3 km/h (3 Bft) 97,87 %
12.04.2022 09:42 13,8 C 16,7 C 8,9 C 60 % 1011,1 hPa 0,0 l/m 2 min 0 min 414 W/m 19,3 km/h (3 Bft) 97,87 %
12.04.2022 09:44 13,8 C 16,7 C 8,9 C 60 % 1011,1 hPa 0,0 l/m 2 min 0 min 450 W/m 16,1 km/h (3 Bft) 97,87 %
12.04.2022 09:46 13,9 C 16,7 C 9,4 C 60 % 1011,1 hPa 0,0 l/m 2 min 0 min 460 W/m 16,1 km/h (3 Bft) 95,74 %
12.04.2022 09:48 14,0 C 16,1 C 9,4 C 60 % 1011,1 hPa 0,0 l/m 2 min 0 min 466 W/m 19,3 km/h (3 Bft) 97,83 %
12.04.2022 09:50 14,1 C 16,1 C 9,4 C 60 % 1011,1 hPa 0,0 l/m 2 min 0 min 473 W/m 22,5 km/h (4 Bft) 97,87 %
12.04.2022 09:52 14,1 C 16,1 C 9,4 C 60 % 1011,1 hPa 0,0 l/m 2 min 0 min 437 W/m 16,1 km/h (3 Bft) 97,87 %
12.04.2022 09:54 14,2 C 16,1 C 9,4 C 60 % 1011,1 hPa 0,0 l/m 2 min 0 min 431 W/m 19,3 km/h (3 Bft) 95,74 %
12.04.2022 09:56 14,3 C 15,6 C 9,4 C 59 % 1011,1 hPa 0,0 l/m 2 min 0 min 376 W/m 22,5 km/h (4 Bft) 100,00 %
12.04.2022 09:58 14,3 C 16,1 C 9,4 C 59 % 1011,1 hPa 0,0 l/m 2 min 0 min 376 W/m 16,1 km/h (3 Bft) 95,74 %
12.04.2022 10:00 14,3 C 15,6 C 9,4 C 59 % 1011,1 hPa 0,0 l/m 2 min 0 min 388 W/m 29,0 km/h (5 Bft) 97,83 %
12.04.2022 10:02 14,3 C 15,6 C 9,4 C 59 % 1011,1 hPa 0,0 l/m 2 min 0 min 347 W/m 19,3 km/h (3 Bft) 97,87 %
12.04.2022 10:04 14,3 C 16,1 C 9,4 C 59 % 1011,1 hPa 0,0 l/m 2 min 0 min 379 W/m 16,1 km/h (3 Bft) 95,74 %
12.04.2022 10:06 14,3 C 16,7 C 9,4 C 60 % 1011,2 hPa 0,0 l/m 2 min 0 min 369 W/m 16,1 km/h (3 Bft) 95,74 %
12.04.2022 10:08 14,3 C 16,7 C 9,4 C 59 % 1011,1 hPa 0,0 l/m 2 min 0 min 366 W/m 22,5 km/h (4 Bft) 93,62 %
12.04.2022 10:10 14,3 C 16,7 C 10,0 C 59 % 1011,1 hPa 0,0 l/m 2 min 0 min 377 W/m 25,7 km/h (4 Bft) 95,74 %
12.04.2022 10:12 14,3 C 16,7 C 10,0 C 59 % 1011,1 hPa 0,0 l/m 2 min 0 min 402 W/m 22,5 km/h (4 Bft) 93,48 %
12.04.2022 10:14 14,4 C 16,7 C 10,0 C 60 % 1011,0 hPa 0,0 l/m 2 min 0 min 388 W/m 19,3 km/h (3 Bft) 95,74 %
12.04.2022 10:16 14,4 C 16,7 C 10,0 C 59 % 1011,0 hPa 0,0 l/m 2 min 0 min 280 W/m 22,5 km/h (4 Bft) 95,74 %
12.04.2022 10:18 14,5 C 17,2 C 10,0 C 60 % 1011,0 hPa 0,0 l/m 0 min 0 min 244 W/m 12,9 km/h (3 Bft) 95,74 %
12.04.2022 10:20 14,6 C 17,2 C 10,6 C 60 % 1011,0 hPa 0,0 l/m 0 min 0 min 209 W/m 16,1 km/h (3 Bft) 95,74 %
12.04.2022 10:22 14,6 C 16,7 C 10,6 C 59 % 1011,0 hPa 0,0 l/m 0 min 0 min 189 W/m 22,5 km/h (4 Bft) 95,74 %
12.04.2022 10:24 14,6 C 16,7 C 10,6 C 59 % 1010,9 hPa 0,0 l/m 0 min 0 min 253 W/m 22,5 km/h (4 Bft) 93,48 %
12.04.2022 10:26 14,7 C 16,7 C 10,6 C 59 % 1010,9 hPa 0,0 l/m 0 min 0 min 198 W/m 19,3 km/h (3 Bft) 93,62 %
12.04.2022 10:28 14,7 C 16,7 C 10,6 C 59 % 1010,9 hPa 0,0 l/m 0 min 0 min 185 W/m 12,9 km/h (3 Bft) 95,74 %
12.04.2022 10:30 14,7 C 16,7 C 10,6 C 59 % 1010,9 hPa 0,0 l/m 0 min 0 min 213 W/m 19,3 km/h (3 Bft) 93,62 %
12.04.2022 10:32 14,8 C 16,7 C 11,1 C 59 % 1010,9 hPa 0,0 l/m 2 min 0 min 411 W/m 22,5 km/h (4 Bft) 93,62 %
12.04.2022 10:34 14,8 C 16,7 C 11,1 C 59 % 1011,0 hPa 0,0 l/m 2 min 0 min 412 W/m 16,1 km/h (3 Bft) 93,48 %
12.04.2022 10:36 14,9 C 16,7 C 11,7 C 59 % 1011,0 hPa 0,0 l/m 2 min 0 min 366 W/m 19,3 km/h (3 Bft) 95,74 %
12.04.2022 10:38 14,9 C 17,2 C 11,7 C 59 % 1011,0 hPa 0,0 l/m 2 min 0 min 315 W/m 25,7 km/h (4 Bft) 91,49 %
12.04.2022 10:40 15,1 C 16,7 C 11,7 C 59 % 1010,9 hPa 0,0 l/m 0 min 0 min 199 W/m 22,5 km/h (4 Bft) 93,62 %
12.04.2022 10:42 15,1 C 16,7 C 12,2 C 59 % 1010,9 hPa 0,0 l/m 0 min 0 min 186 W/m 19,3 km/h (3 Bft) 93,62 %
12.04.2022 10:44 15,2 C 17,2 C 11,7 C 59 % 1010,9 hPa 0,0 l/m 2 min 0 min 318 W/m 12,9 km/h (3 Bft) 93,62 %
12.04.2022 10:46 15,3 C 17,2 C 11,7 C 59 % 1010,9 hPa 0,0 l/m 2 min 0 min 429 W/m 16,1 km/h (3 Bft) 93,48 %
12.04.2022 10:48 15,4 C 17,2 C 12,2 C 59 % 1010,9 hPa 0,0 l/m 2 min 0 min 430 W/m 19,3 km/h (3 Bft) 91,49 %
12.04.2022 10:50 15,5 C 16,7 C 12,2 C 58 % 1010,9 hPa 0,0 l/m 2 min 0 min 353 W/m 25,7 km/h (4 Bft) 93,62 %
12.04.2022 10:52 15,6 C 16,1 C 12,2 C 58 % 1010,9 hPa 0,0 l/m 0 min 0 min 213 W/m 25,7 km/h (4 Bft) 95,74 %
12.04.2022 10:54 15,6 C 16,1 C 12,2 C 57 % 1010,8 hPa 0,0 l/m 0 min 0 min 211 W/m 22,5 km/h (4 Bft) 95,74 %
12.04.2022 10:56 15,7 C 16,1 C 12,2 C 58 % 1010,9 hPa 0,0 l/m 2 min 0 min 446 W/m 16,1 km/h (3 Bft) 93,62 %
12.04.2022 10:58 15,7 C 16,1 C 12,2 C 57 % 1010,9 hPa 0,0 l/m 2 min 0 min 473 W/m 22,5 km/h (4 Bft) 95,65 %
12.04.2022 11:00 15,8 C 16,7 C 12,2 C 57 % 1010,9 hPa 0,0 l/m 2 min 0 min 473 W/m 19,3 km/h (3 Bft) 93,62 %
12.04.2022 11:02 15,8 C 16,7 C 12,2 C 57 % 1010,9 hPa 0,0 l/m 0 min 0 min 245 W/m 16,1 km/h (3 Bft) 97,87 %
12.04.2022 11:04 15,9 C 16,7 C 12,2 C 57 % 1010,9 hPa 0,0 l/m 0 min 0 min 204 W/m 25,7 km/h (4 Bft) 97,87 %
12.04.2022 11:06 15,9 C 16,7 C 12,2 C 57 % 1010,9 hPa 0,0 l/m 0 min 0 min 204 W/m 25,7 km/h (4 Bft) 100,00 %
12.04.2022 11:08 16,0 C 16,1 C 12,2 C 57 % 1010,8 hPa 0,0 l/m 2 min 0 min 547 W/m 22,5 km/h (4 Bft) 98,15 %
12.04.2022 11:10 16,0 C 16,7 C 12,2 C 57 % 1010,8 hPa 0,0 l/m 2 min 0 min 535 W/m 19,3 km/h (3 Bft) 100,00 %
12.04.2022 11:12 16,1 C 16,7 C 12,2 C 58 % 1010,7 hPa 0,0 l/m 2 min 0 min 460 W/m 22,5 km/h (4 Bft) 100,00 %
12.04.2022 11:14 16,1 C 16,7 C 12,2 C 58 % 1010,8 hPa 0,0 l/m 2 min 0 min 508 W/m 16,1 km/h (3 Bft) 100,00 %
12.04.2022 11:16 16,2 C 16,7 C 12,2 C 57 % 1010,8 hPa 0,0 l/m 2 min 0 min 490 W/m 25,7 km/h (4 Bft) 100,00 %
12.04.2022 11:18 16,2 C 16,7 C 12,2 C 57 % 1010,8 hPa 0,0 l/m 2 min 0 min 338 W/m 25,7 km/h (4 Bft) 100,00 %
12.04.2022 11:20 16,3 C 16,7 C 12,2 C 56 % 1010,8 hPa 0,0 l/m 2 min 0 min 385 W/m 22,5 km/h (4 Bft) 100,00 %
12.04.2022 11:22 16,3 C 16,7 C 12,8 C 56 % 1010,7 hPa 0,0 l/m 0 min 0 min 309 W/m 32,2 km/h (5 Bft) 100,00 %
12.04.2022 11:24 16,3 C 16,7 C 12,8 C 56 % 1010,7 hPa 0,0 l/m 0 min 0 min 222 W/m 25,7 km/h (4 Bft) 100,00 %
12.04.2022 11:26 16,4 C 17,2 C 12,8 C 57 % 1010,7 hPa 0,0 l/m 2 min 0 min 323 W/m 12,9 km/h (3 Bft) 100,00 %
12.04.2022 11:28 16,5 C 17,2 C 13,3 C 57 % 1010,7 hPa 0,0 l/m 2 min 0 min 405 W/m 22,5 km/h (4 Bft) 100,00 %
12.04.2022 11:30 16,6 C 17,8 C 13,3 C 57 % 1010,7 hPa 0,0 l/m 2 min 0 min 606 W/m 19,3 km/h (3 Bft) 100,00 %
12.04.2022 11:32 16,7 C 18,3 C 13,3 C 57 % 1010,7 hPa 0,0 l/m 2 min 0 min 578 W/m 16,1 km/h (3 Bft) 100,00 %
12.04.2022 11:34 16,8 C 18,3 C 13,9 C 57 % 1010,8 hPa 0,0 l/m 2 min 0 min 592 W/m 25,7 km/h (4 Bft) 100,00 %
12.04.2022 11:36 16,9 C 18,3 C 13,9 C 56 % 1010,8 hPa 0,0 l/m 2 min 0 min 394 W/m 22,5 km/h (4 Bft) 97,87 %
12.04.2022 11:38 17,1 C 18,3 C 14,4 C 56 % 1010,8 hPa 0,0 l/m 2 min 0 min 449 W/m 22,5 km/h (4 Bft) 100,00 %
12.04.2022 11:40 17,1 C 18,3 C 15,6 C 56 % 1010,6 hPa 0,0 l/m 2 min 0 min 514 W/m 16,1 km/h (3 Bft) 100,00 %
12.04.2022 11:42 17,2 C 18,3 C 16,1 C 56 % 1010,6 hPa 0,0 l/m 2 min 0 min 457 W/m 22,5 km/h (4 Bft) 100,00 %
12.04.2022 11:44 17,3 C 18,3 C 16,7 C 56 % 1010,5 hPa 0,0 l/m 0 min 0 min 269 W/m 19,3 km/h (3 Bft) 100,00 %
12.04.2022 11:46 17,4 C 18,3 C 17,2 C 56 % 1010,5 hPa 0,0 l/m 2 min 0 min 499 W/m 16,1 km/h (3 Bft) 100,00 %
12.04.2022 11:48 17,5 C 18,9 C 16,7 C 55 % 1010,5 hPa 0,0 l/m 2 min 0 min 670 W/m 22,5 km/h (4 Bft) 97,87 %
12.04.2022 11:50 17,6 C 18,9 C 16,7 C 55 % 1010,5 hPa 0,0 l/m 2 min 0 min 696 W/m 22,5 km/h (4 Bft) 100,00 %
12.04.2022 11:52 17,7 C 18,9 C 16,7 C 55 % 1010,5 hPa 0,0 l/m 2 min 0 min 699 W/m 29,0 km/h (5 Bft) 100,00 %
12.04.2022 11:54 17,8 C 19,4 C 16,7 C 55 % 1010,5 hPa 0,0 l/m 2 min 0 min 691 W/m 16,1 km/h (3 Bft) 100,00 %
12.04.2022 11:56 17,8 C 19,4 C 16,7 C 54 % 1010,4 hPa 0,0 l/m 2 min 0 min 695 W/m 16,1 km/h (3 Bft) 100,00 %
12.04.2022 11:58 17,9 C 19,4 C 16,1 C 54 % 1010,4 hPa 0,0 l/m 2 min 0 min 700 W/m 19,3 km/h (3 Bft) 100,00 %
12.04.2022 12:00 18,1 C 20,0 C 16,1 C 54 % 1010,4 hPa 0,0 l/m 2 min 0 min 719 W/m 25,7 km/h (4 Bft) 100,00 %
12.04.2022 12:02 18,2 C 20,0 C 16,7 C 55 % 1010,3 hPa 0,0 l/m 2 min 0 min 727 W/m 22,5 km/h (4 Bft) 100,00 %
12.04.2022 12:04 18,3 C 20,0 C 17,2 C 54 % 1010,3 hPa 0,0 l/m 2 min 0 min 708 W/m 22,5 km/h (4 Bft) 100,00 %
12.04.2022 12:08 18,5 C 20,6 C 17,8 C 54 % 1010,4 hPa 0,0 l/m 4 min 0 min 692 W/m 29,0 km/h (5 Bft) 100,00 %
12.04.2022 12:10 18,6 C 20,6 C 18,3 C 54 % 1010,4 hPa 0,0 l/m 2 min 0 min 654 W/m 19,3 km/h (3 Bft) 100,00 %
12.04.2022 12:12 18,7 C 20,6 C 18,3 C 53 % 1010,4 hPa 0,0 l/m 2 min 0 min 577 W/m 19,3 km/h (3 Bft) 100,00 %
12.04.2022 12:14 18,8 C 20,6 C 18,9 C 53 % 1010,4 hPa 0,0 l/m 2 min 0 min 628 W/m 19,3 km/h (3 Bft) 100,00 %
12.04.2022 12:16 18,9 C 21,1 C 18,9 C 53 % 1010,4 hPa 0,0 l/m 2 min 0 min 680 W/m 22,5 km/h (4 Bft) 100,00 %
12.04.2022 12:18 19,1 C 21,7 C 20,0 C 54 % 1010,4 hPa 0,0 l/m 2 min 0 min 741 W/m 12,9 km/h (3 Bft) 100,00 %
12.04.2022 12:20 19,2 C 21,7 C 20,0 C 53 % 1010,3 hPa 0,0 l/m 2 min 0 min 761 W/m 22,5 km/h (4 Bft) 100,00 %
12.04.2022 12:22 19,2 C 21,1 C 20,0 C 52 % 1010,3 hPa 0,0 l/m 2 min 0 min 716 W/m 25,7 km/h (4 Bft) 100,00 %
12.04.2022 12:24 19,3 C 21,1 C 20,0 C 52 % 1010,3 hPa 0,0 l/m 2 min 0 min 694 W/m 22,5 km/h (4 Bft) 97,83 %
12.04.2022 12:26 19,3 C 21,1 C 20,0 C 52 % 1010,3 hPa 0,0 l/m 2 min 0 min 662 W/m 22,5 km/h (4 Bft) 100,00 %
12.04.2022 12:28 19,4 C 21,7 C 20,6 C 52 % 1010,3 hPa 0,0 l/m 2 min 0 min 774 W/m 22,5 km/h (4 Bft) 97,87 %
12.04.2022 12:30 19,5 C 21,7 C 21,1 C 51 % 1010,2 hPa 0,0 l/m 2 min 0 min 781 W/m 19,3 km/h (3 Bft) 100,00 %
12.04.2022 12:32 19,6 C 21,7 C 21,1 C 52 % 1010,2 hPa 0,0 l/m 2 min 0 min 796 W/m 19,3 km/h (3 Bft) 100,00 %
12.04.2022 12:34 19,7 C 22,2 C 21,7 C 53 % 1010,2 hPa 0,0 l/m 2 min 0 min 765 W/m 16,1 km/h (3 Bft) 100,00 %
12.04.2022 12:36 19,8 C 22,2 C 21,1 C 51 % 1010,2 hPa 0,0 l/m 2 min 0 min 731 W/m 22,5 km/h (4 Bft) 100,00 %
12.04.2022 12:38 19,9 C 22,2 C 21,1 C 51 % 1010,2 hPa 0,0 l/m 2 min 0 min 745 W/m 19,3 km/h (3 Bft) 98,00 %
12.04.2022 12:40 19,9 C 22,2 C 21,1 C 51 % 1010,3 hPa 0,0 l/m 2 min 0 min 724 W/m 19,3 km/h (3 Bft) 94,59 %
12.04.2022 12:42 20,0 C 21,7 C 20,6 C 50 % 1010,3 hPa 0,0 l/m 2 min 0 min 702 W/m 22,5 km/h (4 Bft) 93,62 %
12.04.2022 12:44 20,0 C 21,7 C 20,6 C 50 % 1010,3 hPa 0,0 l/m 2 min 0 min 732 W/m 22,5 km/h (4 Bft) 95,65 %
12.04.2022 12:46 20,0 C 22,2 C 20,6 C 51 % 1010,3 hPa 0,0 l/m 2 min 0 min 744 W/m 22,5 km/h (4 Bft) 95,74 %
12.04.2022 12:48 20,0 C 22,2 C 20,0 C 50 % 1010,2 hPa 0,0 l/m 2 min 0 min 740 W/m 29,0 km/h (5 Bft) 93,62 %
12.04.2022 12:50 20,1 C 22,2 C 19,4 C 50 % 1010,1 hPa 0,0 l/m 2 min 0 min 748 W/m 22,5 km/h (4 Bft) 95,74 %
12.04.2022 12:52 20,1 C 22,2 C 19,4 C 50 % 1010,2 hPa 0,0 l/m 2 min 0 min 760 W/m 22,5 km/h (4 Bft) 95,74 %
12.04.2022 12:54 20,1 C 22,2 C 18,9 C 50 % 1010,2 hPa 0,0 l/m 2 min 0 min 809 W/m 19,3 km/h (3 Bft) 91,30 %
12.04.2022 12:56 20,2 C 22,2 C 18,9 C 50 % 1010,2 hPa 0,0 l/m 2 min 0 min 780 W/m 22,5 km/h (4 Bft) 95,74 %
12.04.2022 12:58 20,2 C 22,2 C 18,3 C 50 % 1010,2 hPa 0,0 l/m 2 min 0 min 796 W/m 25,7 km/h (4 Bft) 93,62 %
12.04.2022 13:00 20,2 C 22,2 C 18,3 C 50 % 1010,2 hPa 0,0 l/m 2 min 0 min 786 W/m 22,5 km/h (4 Bft) 95,74 %
12.04.2022 13:02 20,3 C 22,8 C 18,3 C 50 % 1010,1 hPa 0,0 l/m 2 min 0 min 788 W/m 19,3 km/h (3 Bft) 95,74 %
12.04.2022 13:04 20,4 C 22,8 C 17,8 C 50 % 1010,1 hPa 0,0 l/m 2 min 0 min 788 W/m 16,1 km/h (3 Bft) 95,74 %
12.04.2022 13:06 20,4 C 22,8 C 17,8 C 50 % 1010,1 hPa 0,0 l/m 2 min 0 min 795 W/m 16,1 km/h (3 Bft) 91,30 %
12.04.2022 13:08 20,6 C 22,8 C 17,2 C 50 % 1010,0 hPa 0,0 l/m 2 min 0 min 812 W/m 25,7 km/h (4 Bft) 95,74 %
12.04.2022 13:10 20,6 C 22,8 C 17,2 C 49 % 1009,9 hPa 0,0 l/m 2 min 0 min 805 W/m 25,7 km/h (4 Bft) 95,74 %
12.04.2022 13:12 20,6 C 22,8 C 17,2 C 49 % 1009,9 hPa 0,0 l/m 2 min 0 min 820 W/m 19,3 km/h (3 Bft) 100,00 %
12.04.2022 13:14 20,7 C 22,8 C 17,2 C 49 % 1010,0 hPa 0,0 l/m 2 min 0 min 820 W/m 22,5 km/h (4 Bft) 97,87 %
12.04.2022 13:16 20,7 C 22,8 C 17,8 C 49 % 1009,9 hPa 0,0 l/m 2 min 0 min 814 W/m 25,7 km/h (4 Bft) 97,87 %
12.04.2022 13:18 20,8 C 22,8 C 17,8 C 48 % 1009,9 hPa 0,0 l/m 2 min 0 min 832 W/m 22,5 km/h (4 Bft) 97,83 %
12.04.2022 13:20 20,9 C 22,8 C 17,8 C 49 % 1009,9 hPa 0,0 l/m 2 min 0 min 816 W/m 19,3 km/h (3 Bft) 97,87 %
12.04.2022 13:22 20,9 C 23,3 C 17,8 C 48 % 1009,9 hPa 0,0 l/m 2 min 0 min 801 W/m 12,9 km/h (3 Bft) 97,87 %
12.04.2022 13:24 21,0 C 23,3 C 17,2 C 48 % 1009,9 hPa 0,0 l/m 2 min 0 min 772 W/m 19,3 km/h (3 Bft) 97,87 %
12.04.2022 13:26 21,1 C 23,3 C 17,2 C 48 % 1009,9 hPa 0,0 l/m 2 min 0 min 746 W/m 19,3 km/h (3 Bft) 100,00 %
12.04.2022 13:28 21,1 C 22,8 C 17,2 C 49 % 1009,9 hPa 0,0 l/m 2 min 0 min 740 W/m 22,5 km/h (4 Bft) 100,00 %
12.04.2022 13:30 21,1 C 22,8 C 17,2 C 48 % 1009,8 hPa 0,0 l/m 2 min 0 min 670 W/m 19,3 km/h (3 Bft) 97,83 %
12.04.2022 13:32 21,1 C 22,8 C 17,2 C 49 % 1009,8 hPa 0,0 l/m 2 min 0 min 693 W/m 19,3 km/h (3 Bft) 97,87 %
12.04.2022 13:34 21,1 C 23,3 C 17,8 C 49 % 1009,8 hPa 0,0 l/m 2 min 0 min 705 W/m 22,5 km/h (4 Bft) 100,00 %
12.04.2022 13:36 21,2 C 23,3 C 17,8 C 49 % 1009,8 hPa 0,0 l/m 2 min 0 min 678 W/m 22,5 km/h (4 Bft) 100,00 %
12.04.2022 13:38 21,3 C 23,3 C 18,3 C 49 % 1009,8 hPa 0,0 l/m 2 min 0 min 694 W/m 19,3 km/h (3 Bft) 100,00 %
12.04.2022 13:40 21,3 C 22,8 C 18,3 C 48 % 1009,8 hPa 0,0 l/m 2 min 0 min 595 W/m 22,5 km/h (4 Bft) 97,87 %
12.04.2022 13:42 21,3 C 22,2 C 17,8 C 48 % 1009,7 hPa 0,0 l/m 2 min 0 min 555 W/m 25,7 km/h (4 Bft) 100,00 %
12.04.2022 13:44 21,3 C 22,2 C 17,8 C 48 % 1009,7 hPa 0,0 l/m 2 min 0 min 526 W/m 19,3 km/h (3 Bft) 100,00 %
12.04.2022 13:46 21,2 C 22,2 C 17,2 C 48 % 1009,7 hPa 0,0 l/m 2 min 0 min 462 W/m 19,3 km/h (3 Bft) 100,00 %
12.04.2022 13:48 21,2 C 21,7 C 17,2 C 48 % 1009,7 hPa 0,0 l/m 2 min 0 min 381 W/m 22,5 km/h (4 Bft) 100,00 %
12.04.2022 13:50 21,1 C 21,1 C 17,2 C 48 % 1009,7 hPa 0,0 l/m 0 min 0 min 355 W/m 22,5 km/h (4 Bft) 100,00 %
12.04.2022 13:52 21,0 C 21,1 C 16,7 C 49 % 1009,7 hPa 0,0 l/m 0 min 0 min 356 W/m 22,5 km/h (4 Bft) 100,00 %
12.04.2022 13:54 20,9 C 21,1 C 16,7 C 49 % 1009,7 hPa 0,0 l/m 2 min 0 min 389 W/m 19,3 km/h (3 Bft) 100,00 %
12.04.2022 13:56 20,9 C 21,1 C 16,7 C 48 % 1009,7 hPa 0,0 l/m 2 min 0 min 396 W/m 22,5 km/h (4 Bft) 100,00 %
12.04.2022 13:58 20,8 C 21,1 C 16,7 C 49 % 1009,8 hPa 0,0 l/m 2 min 0 min 401 W/m 19,3 km/h (3 Bft) 100,00 %
12.04.2022 14:00 20,8 C 21,7 C 16,7 C 49 % 1009,8 hPa 0,0 l/m 2 min 0 min 511 W/m 19,3 km/h (3 Bft) 97,87 %
12.04.2022 14:02 20,8 C 22,2 C 17,2 C 49 % 1009,8 hPa 0,0 l/m 2 min 0 min 648 W/m 19,3 km/h (3 Bft) 97,87 %
12.04.2022 14:04 20,9 C 22,8 C 17,2 C 49 % 1009,8 hPa 0,0 l/m 2 min 0 min 700 W/m 19,3 km/h (3 Bft) 100,00 %
12.04.2022 14:06 20,9 C 22,8 C 17,2 C 49 % 1009,8 hPa 0,0 l/m 2 min 0 min 681 W/m 16,1 km/h (3 Bft) 97,87 %
12.04.2022 14:08 21,1 C 22,8 C 17,2 C 49 % 1009,8 hPa 0,0 l/m 2 min 0 min 521 W/m 19,3 km/h (3 Bft) 100,00 %
12.04.2022 14:10 21,1 C 22,2 C 17,2 C 49 % 1009,8 hPa 0,0 l/m 2 min 0 min 476 W/m 22,5 km/h (4 Bft) 95,74 %
12.04.2022 14:12 21,1 C 22,2 C 17,2 C 49 % 1009,8 hPa 0,0 l/m 2 min 0 min 444 W/m 16,1 km/h (3 Bft) 97,87 %
12.04.2022 14:14 21,2 C 22,8 C 17,2 C 49 % 1009,8 hPa 0,0 l/m 2 min 0 min 493 W/m 22,5 km/h (4 Bft) 100,00 %
12.04.2022 14:16 21,2 C 22,8 C 17,2 C 49 % 1009,6 hPa 0,0 l/m 2 min 0 min 520 W/m 16,1 km/h (3 Bft) 97,83 %
12.04.2022 14:18 21,3 C 22,8 C 17,8 C 49 % 1009,5 hPa 0,0 l/m 2 min 0 min 524 W/m 22,5 km/h (4 Bft) 97,87 %
12.04.2022 14:20 21,4 C 22,8 C 17,8 C 49 % 1009,5 hPa 0,0 l/m 2 min 0 min 572 W/m 19,3 km/h (3 Bft) 97,87 %
12.04.2022 14:22 21,5 C 23,3 C 17,8 C 49 % 1009,3 hPa 0,0 l/m 2 min 0 min 535 W/m 19,3 km/h (3 Bft) 97,87 %
12.04.2022 14:24 21,6 C 22,8 C 17,8 C 49 % 1009,3 hPa 0,0 l/m 2 min 0 min 469 W/m 16,1 km/h (3 Bft) 97,87 %
12.04.2022 14:26 21,6 C 22,8 C 17,8 C 49 % 1009,2 hPa 0,0 l/m 2 min 0 min 461 W/m 12,9 km/h (3 Bft) 95,74 %
12.04.2022 14:28 21,7 C 23,3 C 17,8 C 49 % 1009,1 hPa 0,0 l/m 2 min 0 min 479 W/m 12,9 km/h (3 Bft) 97,83 %
12.04.2022 14:30 21,7 C 23,3 C 17,8 C 49 % 1009,2 hPa 0,0 l/m 2 min 0 min 566 W/m 19,3 km/h (3 Bft) 95,74 %
12.04.2022 14:32 21,7 C 23,3 C 17,8 C 49 % 1009,3 hPa 0,0 l/m 2 min 0 min 616 W/m 19,3 km/h (3 Bft) 97,87 %
12.04.2022 14:34 21,8 C 23,3 C 17,8 C 48 % 1009,3 hPa 0,0 l/m 2 min 0 min 548 W/m 19,3 km/h (3 Bft) 97,87 %
12.04.2022 14:36 21,9 C 23,9 C 17,8 C 48 % 1009,2 hPa 0,0 l/m 2 min 0 min 523 W/m 16,1 km/h (3 Bft) 95,74 %
12.04.2022 14:38 22,0 C 23,9 C 17,8 C 48 % 1009,2 hPa 0,0 l/m 2 min 0 min 702 W/m 19,3 km/h (3 Bft) 97,87 %
12.04.2022 14:40 22,1 C 24,4 C 18,3 C 48 % 1009,2 hPa 0,0 l/m 2 min 0 min 784 W/m 22,5 km/h (4 Bft) 93,48 %
12.04.2022 14:42 22,2 C 25,0 C 18,3 C 49 % 1009,2 hPa 0,0 l/m 2 min 0 min 816 W/m 12,9 km/h (3 Bft) 95,74 %
12.04.2022 14:44 22,4 C 25,6 C 18,3 C 48 % 1009,2 hPa 0,0 l/m 2 min 0 min 786 W/m 19,3 km/h (3 Bft) 93,62 %
12.04.2022 14:46 22,5 C 26,1 C 18,3 C 47 % 1009,1 hPa 0,0 l/m 2 min 0 min 745 W/m 16,1 km/h (3 Bft) 95,74 %
12.04.2022 14:48 22,7 C 26,1 C 18,3 C 48 % 1009,1 hPa 0,0 l/m 2 min 0 min 717 W/m 12,9 km/h (3 Bft) 93,62 %
12.04.2022 14:50 22,8 C 26,1 C 18,3 C 47 % 1009,1 hPa 0,0 l/m 2 min 0 min 650 W/m 16,1 km/h (3 Bft) 95,74 %
12.04.2022 14:52 22,9 C 25,6 C 18,3 C 46 % 1009,2 hPa 0,0 l/m 2 min 0 min 597 W/m 16,1 km/h (3 Bft) 93,48 %
12.04.2022 14:54 22,9 C 26,1 C 18,3 C 46 % 1009,2 hPa 0,0 l/m 2 min 0 min 662 W/m 16,1 km/h (3 Bft) 95,74 %
12.04.2022 14:56 23,1 C 25,6 C 18,3 C 46 % 1009,2 hPa 0,0 l/m 2 min 0 min 681 W/m 22,5 km/h (4 Bft) 95,74 %
12.04.2022 14:58 23,1 C 26,1 C 18,3 C 46 % 1009,2 hPa 0,0 l/m 2 min 0 min 673 W/m 16,1 km/h (3 Bft) 93,62 %
12.04.2022 15:00 23,2 C 26,1 C 18,3 C 45 % 1009,2 hPa 0,0 l/m 2 min 0 min 640 W/m 19,3 km/h (3 Bft) 95,74 %
12.04.2022 15:02 23,2 C 25,6 C 18,3 C 45 % 1009,1 hPa 0,0 l/m 2 min 0 min 616 W/m 22,5 km/h (4 Bft) 95,65 %
12.04.2022 15:04 23,2 C 25,6 C 18,3 C 45 % 1009,2 hPa 0,0 l/m 2 min 0 min 618 W/m 19,3 km/h (3 Bft) 95,74 %
12.04.2022 15:06 23,2 C 25,0 C 18,3 C 45 % 1009,3 hPa 0,0 l/m 2 min 0 min 599 W/m 16,1 km/h (3 Bft) 95,74 %
12.04.2022 15:08 23,2 C 25,0 C 18,3 C 46 % 1009,2 hPa 0,0 l/m 2 min 0 min 605 W/m 16,1 km/h (3 Bft) 95,74 %
12.04.2022 15:10 23,2 C 25,0 C 18,3 C 45 % 1009,3 hPa 0,0 l/m 2 min 0 min 551 W/m 22,5 km/h (4 Bft) 93,62 %
12.04.2022 15:12 23,2 C 25,0 C 18,3 C 46 % 1009,3 hPa 0,0 l/m 2 min 0 min 561 W/m 16,1 km/h (3 Bft) 91,49 %
12.04.2022 15:14 23,2 C 25,0 C 18,3 C 46 % 1009,2 hPa 0,0 l/m 2 min 0 min 577 W/m 12,9 km/h (3 Bft) 95,65 %
12.04.2022 15:16 23,2 C 25,6 C 18,3 C 46 % 1009,2 hPa 0,0 l/m 2 min 0 min 593 W/m 22,5 km/h (4 Bft) 97,87 %
12.04.2022 15:18 23,2 C 25,6 C 18,3 C 46 % 1009,2 hPa 0,0 l/m 2 min 0 min 628 W/m 19,3 km/h (3 Bft) 97,87 %
12.04.2022 15:20 23,2 C 25,6 C 18,3 C 46 % 1009,1 hPa 0,0 l/m 2 min 0 min 649 W/m 19,3 km/h (3 Bft) 97,87 %
12.04.2022 15:22 23,2 C 25,0 C 18,3 C 45 % 1009,2 hPa 0,0 l/m 2 min 0 min 627 W/m 19,3 km/h (3 Bft) 97,87 %
12.04.2022 15:24 23,2 C 25,6 C 18,3 C 45 % 1009,2 hPa 0,0 l/m 2 min 0 min 615 W/m 19,3 km/h (3 Bft) 95,74 %
12.04.2022 15:26 23,3 C 25,6 C 18,3 C 45 % 1009,1 hPa 0,0 l/m 2 min 0 min 618 W/m 19,3 km/h (3 Bft) 95,65 %
12.04.2022 15:28 23,3 C 25,0 C 18,3 C 45 % 1009,1 hPa 0,0 l/m 2 min 0 min 611 W/m 19,3 km/h (3 Bft) 97,87 %
12.04.2022 15:30 23,3 C 25,6 C 18,3 C 45 % 1009,1 hPa 0,0 l/m 2 min 0 min 605 W/m 19,3 km/h (3 Bft) 97,87 %
12.04.2022 15:32 23,3 C 25,0 C 18,3 C 44 % 1009,1 hPa 0,0 l/m 2 min 0 min 609 W/m 19,3 km/h (3 Bft) 97,87 %
12.04.2022 15:34 23,3 C 25,6 C 18,3 C 45 % 1009,1 hPa 0,0 l/m 2 min 0 min 610 W/m 19,3 km/h (3 Bft) 97,87 %
12.04.2022 15:36 23,4 C 26,1 C 18,3 C 45 % 1009,0 hPa 0,0 l/m 2 min 0 min 607 W/m 19,3 km/h (3 Bft) 95,74 %
12.04.2022 15:38 23,4 C 26,1 C 18,9 C 45 % 1009,0 hPa 0,0 l/m 2 min 0 min 610 W/m 16,1 km/h (3 Bft) 97,83 %
12.04.2022 15:40 23,6 C 26,1 C 18,9 C 45 % 1009,0 hPa 0,0 l/m 2 min 0 min 598 W/m 16,1 km/h (3 Bft) 97,87 %
12.04.2022 15:42 23,6 C 26,1 C 18,3 C 44 % 1009,0 hPa 0,0 l/m 2 min 0 min 582 W/m 29,0 km/h (5 Bft) 95,74 %
12.04.2022 15:44 23,6 C 25,6 C 18,3 C 44 % 1009,0 hPa 0,0 l/m 2 min 0 min 556 W/m 19,3 km/h (3 Bft) 97,87 %
12.04.2022 15:46 23,6 C 25,6 C 18,3 C 45 % 1009,0 hPa 0,0 l/m 2 min 0 min 566 W/m 16,1 km/h (3 Bft) 97,87 %
12.04.2022 15:48 23,7 C 26,1 C 18,9 C 44 % 1009,0 hPa 0,0 l/m 2 min 0 min 572 W/m 29,0 km/h (5 Bft) 97,87 %
12.04.2022 15:50 23,7 C 25,6 C 18,3 C 44 % 1009,0 hPa 0,0 l/m 2 min 0 min 595 W/m 32,2 km/h (5 Bft) 97,83 %
12.04.2022 15:52 23,7 C 26,1 C 18,3 C 44 % 1008,9 hPa 0,0 l/m 2 min 0 min 608 W/m 19,3 km/h (3 Bft) 93,62 %
12.04.2022 15:54 23,7 C 26,1 C 18,3 C 44 % 1009,0 hPa 0,0 l/m 2 min 0 min 592 W/m 25,7 km/h (4 Bft) 97,87 %
12.04.2022 15:56 23,7 C 26,1 C 18,3 C 44 % 1008,9 hPa 0,0 l/m 2 min 0 min 612 W/m 19,3 km/h (3 Bft) 93,62 %
12.04.2022 15:58 23,7 C 26,7 C 18,3 C 44 % 1008,9 hPa 0,0 l/m 2 min 0 min 661 W/m 19,3 km/h (3 Bft) 97,87 %
12.04.2022 16:00 23,7 C 26,7 C 18,9 C 45 % 1008,9 hPa 0,0 l/m 2 min 0 min 674 W/m 22,5 km/h (4 Bft) 97,87 %
12.04.2022 16:02 23,8 C 26,7 C 18,3 C 44 % 1008,9 hPa 0,0 l/m 2 min 0 min 641 W/m 25,7 km/h (4 Bft) 97,83 %
12.04.2022 16:04 23,8 C 27,2 C 18,9 C 44 % 1008,9 hPa 0,0 l/m 2 min 0 min 638 W/m 22,5 km/h (4 Bft) 98,00 %
12.04.2022 16:06 23,8 C 27,2 C 18,9 C 44 % 1008,8 hPa 0,0 l/m 2 min 0 min 638 W/m 25,7 km/h (4 Bft) 100,00 %
12.04.2022 16:08 23,8 C 27,2 C 18,9 C 44 % 1008,8 hPa 0,0 l/m 2 min 0 min 634 W/m 25,7 km/h (4 Bft) 100,00 %
12.04.2022 16:10 23,9 C 27,2 C 18,9 C 44 % 1008,8 hPa 0,0 l/m 2 min 0 min 628 W/m 25,7 km/h (4 Bft) 100,00 %
12.04.2022 16:12 23,9 C 27,2 C 18,9 C 44 % 1008,8 hPa 0,0 l/m 2 min 0 min 611 W/m 29,0 km/h (5 Bft) 100,00 %
12.04.2022 16:14 23,9 C 27,8 C 18,9 C 44 % 1008,7 hPa 0,0 l/m 2 min 0 min 613 W/m 19,3 km/h (3 Bft) 100,00 %
12.04.2022 16:16 23,9 C 27,8 C 18,9 C 44 % 1008,8 hPa 0,0 l/m 2 min 0 min 617 W/m 22,5 km/h (4 Bft) 100,00 %
12.04.2022 16:18 24,0 C 27,8 C 18,9 C 44 % 1008,7 hPa 0,0 l/m 2 min 0 min 612 W/m 22,5 km/h (4 Bft) 100,00 %
12.04.2022 16:20 24,1 C 28,3 C 18,9 C 44 % 1008,7 hPa 0,0 l/m 2 min 0 min 590 W/m 16,1 km/h (3 Bft) 100,00 %
12.04.2022 16:22 24,1 C 27,8 C 18,9 C 44 % 1008,7 hPa 0,0 l/m 2 min 0 min 554 W/m 16,1 km/h (3 Bft) 100,00 %
12.04.2022 16:24 24,1 C 27,8 C 18,9 C 44 % 1008,7 hPa 0,0 l/m 2 min 0 min 562 W/m 19,3 km/h (3 Bft) 100,00 %
12.04.2022 16:26 24,2 C 27,8 C 18,9 C 44 % 1008,7 hPa 0,0 l/m 2 min 0 min 577 W/m 25,7 km/h (4 Bft) 97,87 %
12.04.2022 16:28 24,2 C 28,3 C 18,9 C 44 % 1008,7 hPa 0,0 l/m 2 min 0 min 564 W/m 19,3 km/h (3 Bft) 100,00 %
12.04.2022 16:30 24,2 C 27,8 C 18,9 C 44 % 1008,7 hPa 0,0 l/m 2 min 0 min 558 W/m 19,3 km/h (3 Bft) 100,00 %
12.04.2022 16:32 24,2 C 27,2 C 18,9 C 43 % 1008,7 hPa 0,0 l/m 2 min 0 min 511 W/m 19,3 km/h (3 Bft) 97,87 %
12.04.2022 16:34 24,2 C 27,2 C 18,9 C 43 % 1008,7 hPa 0,0 l/m 2 min 0 min 508 W/m 25,7 km/h (4 Bft) 100,00 %
12.04.2022 16:36 24,2 C 26,7 C 18,9 C 44 % 1008,7 hPa 0,0 l/m 2 min 0 min 500 W/m 29,0 km/h (5 Bft) 100,00 %
12.04.2022 16:38 24,1 C 27,2 C 18,9 C 44 % 1008,7 hPa 0,0 l/m 2 min 0 min 475 W/m 16,1 km/h (3 Bft) 100,00 %
12.04.2022 16:40 24,1 C 26,7 C 18,9 C 44 % 1008,6 hPa 0,0 l/m 2 min 0 min 482 W/m 19,3 km/h (3 Bft) 100,00 %
12.04.2022 16:42 24,1 C 27,2 C 18,9 C 44 % 1008,6 hPa 0,0 l/m 2 min 0 min 505 W/m 19,3 km/h (3 Bft) 97,87 %
12.04.2022 16:44 24,1 C 27,2 C 18,9 C 44 % 1008,5 hPa 0,0 l/m 2 min 0 min 473 W/m 19,3 km/h (3 Bft) 97,87 %
12.04.2022 16:46 24,1 C 27,2 C 18,9 C 44 % 1008,5 hPa 0,0 l/m 2 min 0 min 487 W/m 16,1 km/h (3 Bft) 97,87 %
12.04.2022 16:48 24,1 C 26,7 C 18,9 C 44 % 1008,5 hPa 0,0 l/m 2 min 0 min 474 W/m 19,3 km/h (3 Bft) 97,83 %
12.04.2022 16:50 24,1 C 26,7 C 18,9 C 44 % 1008,5 hPa 0,0 l/m 2 min 0 min 482 W/m 22,5 km/h (4 Bft) 97,87 %
12.04.2022 16:52 24,1 C 26,7 C 18,9 C 44 % 1008,5 hPa 0,0 l/m 2 min 0 min 488 W/m 19,3 km/h (3 Bft) 97,87 %
12.04.2022 16:54 24,1 C 26,7 C 18,9 C 44 % 1008,4 hPa 0,0 l/m 2 min 0 min 497 W/m 19,3 km/h (3 Bft) 97,87 %
12.04.2022 16:56 24,1 C 26,7 C 18,9 C 44 % 1008,5 hPa 0,0 l/m 2 min 0 min 478 W/m 25,7 km/h (4 Bft) 97,87 %
12.04.2022 16:58 24,1 C 27,2 C 18,9 C 44 % 1008,4 hPa 0,0 l/m 2 min 0 min 487 W/m 12,9 km/h (3 Bft) 95,74 %
12.04.2022 17:00 24,1 C 27,2 C 18,9 C 44 % 1008,4 hPa 0,0 l/m 2 min 0 min 489 W/m 16,1 km/h (3 Bft) 95,65 %
12.04.2022 17:02 24,1 C 27,2 C 18,9 C 44 % 1008,4 hPa 0,0 l/m 2 min 0 min 469 W/m 25,7 km/h (4 Bft) 97,87 %
12.04.2022 17:04 24,1 C 27,2 C 18,9 C 44 % 1008,4 hPa 0,0 l/m 2 min 0 min 429 W/m 19,3 km/h (3 Bft) 97,87 %
12.04.2022 17:06 24,1 C 26,7 C 18,9 C 44 % 1008,4 hPa 0,0 l/m 2 min 0 min 411 W/m 19,3 km/h (3 Bft) 95,74 %
12.04.2022 17:08 24,2 C 26,7 C 18,9 C 45 % 1008,3 hPa 0,0 l/m 2 min 0 min 406 W/m 22,5 km/h (4 Bft) 97,87 %
12.04.2022 17:10 24,1 C 25,6 C 18,9 C 43 % 1008,3 hPa 0,0 l/m 2 min 0 min 381 W/m 22,5 km/h (4 Bft) 97,83 %
12.04.2022 17:12 24,1 C 25,6 C 18,9 C 44 % 1008,2 hPa 0,0 l/m 2 min 0 min 355 W/m 19,3 km/h (3 Bft) 95,74 %
12.04.2022 17:14 24,0 C 26,1 C 18,9 C 44 % 1008,3 hPa 0,0 l/m 2 min 0 min 367 W/m 16,1 km/h (3 Bft) 95,74 %
12.04.2022 17:16 24,0 C 26,1 C 18,9 C 44 % 1008,2 hPa 0,0 l/m 2 min 0 min 365 W/m 22,5 km/h (4 Bft) 95,74 %
12.04.2022 17:18 23,9 C 25,6 C 18,9 C 44 % 1008,3 hPa 0,0 l/m 2 min 0 min 364 W/m 19,3 km/h (3 Bft) 97,87 %
12.04.2022 17:20 23,9 C 26,1 C 18,9 C 44 % 1008,3 hPa 0,0 l/m 2 min 0 min 361 W/m 16,1 km/h (3 Bft) 100,00 %
12.04.2022 17:22 23,9 C 26,1 C 18,9 C 44 % 1008,3 hPa 0,0 l/m 2 min 0 min 379 W/m 22,5 km/h (4 Bft) 100,00 %
12.04.2022 17:24 23,9 C 26,1 C 18,9 C 45 % 1008,3 hPa 0,0 l/m 2 min 0 min 424 W/m 16,1 km/h (3 Bft) 97,87 %
12.04.2022 17:26 23,9 C 26,7 C 18,9 C 45 % 1008,3 hPa 0,0 l/m 2 min 0 min 426 W/m 19,3 km/h (3 Bft) 100,00 %
12.04.2022 17:28 23,9 C 26,1 C 18,9 C 45 % 1008,4 hPa 0,0 l/m 2 min 0 min 408 W/m 16,1 km/h (3 Bft) 100,00 %
12.04.2022 17:30 23,9 C 26,1 C 18,9 C 44 % 1008,4 hPa 0,0 l/m 2 min 0 min 429 W/m 22,5 km/h (4 Bft) 97,87 %
12.04.2022 17:32 23,9 C 26,7 C 18,9 C 44 % 1008,4 hPa 0,0 l/m 2 min 0 min 427 W/m 16,1 km/h (3 Bft) 97,87 %
12.04.2022 17:34 24,0 C 26,7 C 18,9 C 44 % 1008,5 hPa 0,0 l/m 2 min 0 min 415 W/m 22,5 km/h (4 Bft) 97,83 %
12.04.2022 17:36 24,0 C 26,7 C 18,9 C 44 % 1008,4 hPa 0,0 l/m 2 min 0 min 421 W/m 22,5 km/h (4 Bft) 97,87 %
12.04.2022 17:38 24,1 C 27,2 C 18,9 C 44 % 1008,4 hPa 0,0 l/m 2 min 0 min 428 W/m 19,3 km/h (3 Bft) 97,87 %
12.04.2022 17:40 24,1 C 27,2 C 18,9 C 45 % 1008,4 hPa 0,0 l/m 2 min 0 min 417 W/m 16,1 km/h (3 Bft) 97,87 %
12.04.2022 17:42 24,2 C 27,2 C 18,9 C 45 % 1008,5 hPa 0,0 l/m 2 min 0 min 397 W/m 12,9 km/h (3 Bft) 95,74 %
12.04.2022 17:44 24,2 C 26,7 C 18,9 C 45 % 1008,5 hPa 0,0 l/m 2 min 0 min 364 W/m 19,3 km/h (3 Bft) 97,87 %
12.04.2022 17:46 24,2 C 26,1 C 18,9 C 45 % 1008,6 hPa 0,0 l/m 2 min 0 min 329 W/m 16,1 km/h (3 Bft) 95,65 %
12.04.2022 17:48 24,2 C 26,1 C 18,9 C 45 % 1008,6 hPa 0,0 l/m 2 min 0 min 301 W/m 22,5 km/h (4 Bft) 95,74 %
12.04.2022 17:50 24,2 C 25,6 C 18,3 C 45 % 1008,6 hPa 0,0 l/m 2 min 0 min 273 W/m 16,1 km/h (3 Bft) 95,74 %
12.04.2022 17:52 24,1 C 25,0 C 18,3 C 44 % 1008,6 hPa 0,0 l/m 2 min 0 min 266 W/m 16,1 km/h (3 Bft) 95,74 %
12.04.2022 17:54 24,1 C 25,0 C 18,3 C 45 % 1008,6 hPa 0,0 l/m 2 min 0 min 257 W/m 12,9 km/h (3 Bft) 95,74 %
12.04.2022 17:56 24,0 C 25,0 C 18,3 C 45 % 1008,6 hPa 0,0 l/m 2 min 0 min 255 W/m 16,1 km/h (3 Bft) 93,62 %
12.04.2022 17:58 23,9 C 25,0 C 18,3 C 45 % 1008,6 hPa 0,0 l/m 2 min 0 min 253 W/m 19,3 km/h (3 Bft) 95,65 %
12.04.2022 18:00 23,9 C 24,4 C 18,3 C 46 % 1008,6 hPa 0,0 l/m 2 min 0 min 239 W/m 16,1 km/h (3 Bft) 89,36 %
12.04.2022 18:02 23,8 C 24,4 C 18,3 C 46 % 1008,6 hPa 0,0 l/m 2 min 0 min 249 W/m 12,9 km/h (3 Bft) 95,74 %
12.04.2022 18:04 23,8 C 24,4 C 18,3 C 46 % 1008,6 hPa 0,0 l/m 2 min 0 min 239 W/m 16,1 km/h (3 Bft) 95,74 %
12.04.2022 18:08 23,7 C 24,4 C 18,3 C 46 % 1008,6 hPa 0,0 l/m 4 min 0 min 224 W/m 16,1 km/h (3 Bft) 94,62 %
12.04.2022 18:10 23,7 C 24,4 C 18,3 C 46 % 1008,6 hPa 0,0 l/m 2 min 0 min 212 W/m 6,4 km/h (2 Bft) 95,74 %
12.04.2022 18:12 23,7 C 24,4 C 18,3 C 47 % 1008,7 hPa 0,0 l/m 2 min 0 min 204 W/m 12,9 km/h (3 Bft) 95,74 %
12.04.2022 18:14 23,6 C 23,9 C 18,3 C 46 % 1008,7 hPa 0,0 l/m 2 min 0 min 202 W/m 25,7 km/h (4 Bft) 95,74 %
12.04.2022 18:16 23,6 C 23,9 C 18,3 C 46 % 1008,7 hPa 0,0 l/m 2 min 0 min 199 W/m 12,9 km/h (3 Bft) 89,36 %
12.04.2022 18:18 23,6 C 23,9 C 18,3 C 46 % 1008,7 hPa 0,0 l/m 2 min 0 min 195 W/m 12,9 km/h (3 Bft) 95,74 %
12.04.2022 18:20 23,5 C 23,9 C 17,8 C 47 % 1008,7 hPa 0,0 l/m 2 min 0 min 191 W/m 19,3 km/h (3 Bft) 95,65 %
12.04.2022 18:22 23,4 C 23,9 C 17,8 C 48 % 1008,7 hPa 0,0 l/m 2 min 0 min 187 W/m 12,9 km/h (3 Bft) 91,49 %
12.04.2022 18:24 23,4 C 23,9 C 17,8 C 48 % 1008,7 hPa 0,0 l/m 2 min 0 min 178 W/m 12,9 km/h (3 Bft) 95,74 %
12.04.2022 18:26 23,4 C 23,9 C 17,8 C 48 % 1008,7 hPa 0,0 l/m 2 min 0 min 167 W/m 16,1 km/h (3 Bft) 93,62 %
12.04.2022 18:28 23,3 C 23,3 C 17,8 C 48 % 1008,7 hPa 0,0 l/m 2 min 0 min 160 W/m 12,9 km/h (3 Bft) 95,74 %
12.04.2022 18:30 23,3 C 23,3 C 17,8 C 48 % 1008,8 hPa 0,0 l/m 2 min 0 min 149 W/m 12,9 km/h (3 Bft) 100,00 %
12.04.2022 18:32 23,3 C 22,8 C 17,8 C 48 % 1008,8 hPa 0,0 l/m 2 min 0 min 142 W/m 12,9 km/h (3 Bft) 97,83 %
12.04.2022 18:34 23,2 C 22,8 C 17,2 C 49 % 1008,8 hPa 0,0 l/m 0 min 0 min 137 W/m 9,7 km/h (2 Bft) 100,00 %
12.04.2022 18:36 23,2 C 22,8 C 17,2 C 48 % 1008,9 hPa 0,0 l/m 2 min 0 min 139 W/m 12,9 km/h (3 Bft) 97,87 %
12.04.2022 18:38 23,1 C 22,8 C 17,2 C 49 % 1008,8 hPa 0,0 l/m 2 min 0 min 137 W/m 6,4 km/h (2 Bft) 95,74 %
12.04.2022 18:40 23,1 C 22,8 C 17,2 C 48 % 1008,9 hPa 0,0 l/m 2 min 0 min 133 W/m 9,7 km/h (2 Bft) 100,00 %
12.04.2022 18:42 23,1 C 22,8 C 17,2 C 48 % 1008,8 hPa 0,0 l/m 2 min 0 min 130 W/m 9,7 km/h (2 Bft) 100,00 %
12.04.2022 18:44 23,0 C 22,8 C 17,2 C 49 % 1008,8 hPa 0,0 l/m 0 min 0 min 121 W/m 12,9 km/h (3 Bft) 100,00 %
12.04.2022 18:46 22,9 C 22,8 C 17,2 C 49 % 1008,8 hPa 0,0 l/m 0 min 0 min 109 W/m 6,4 km/h (2 Bft) 97,87 %
12.04.2022 18:48 22,9 C 22,2 C 17,2 C 49 % 1008,9 hPa 0,0 l/m 0 min 0 min 104 W/m 12,9 km/h (3 Bft) 100,00 %
12.04.2022 18:50 22,9 C 22,2 C 17,2 C 49 % 1008,9 hPa 0,0 l/m 0 min 0 min 102 W/m 12,9 km/h (3 Bft) 97,87 %
12.04.2022 18:52 22,8 C 22,2 C 17,2 C 49 % 1008,9 hPa 0,0 l/m 0 min 0 min 98 W/m 6,4 km/h (2 Bft) 97,87 %
12.04.2022 18:54 22,8 C 21,7 C 17,2 C 50 % 1008,9 hPa 0,0 l/m 0 min 0 min 95 W/m 16,1 km/h (3 Bft) 97,87 %
12.04.2022 18:56 22,7 C 21,7 C 16,7 C 49 % 1009,0 hPa 0,0 l/m 0 min 0 min 92 W/m 9,7 km/h (2 Bft) 97,83 %
12.04.2022 18:58 22,7 C 21,7 C 16,7 C 50 % 1009,0 hPa 0,0 l/m 0 min 0 min 90 W/m 9,7 km/h (2 Bft) 97,87 %
12.04.2022 19:00 22,6 C 21,7 C 16,7 C 50 % 1009,0 hPa 0,0 l/m 0 min 0 min 87 W/m 6,4 km/h (2 Bft) 97,87 %
12.04.2022 19:02 22,6 C 21,7 C 16,7 C 50 % 1009,0 hPa 0,0 l/m 0 min 0 min 84 W/m 3,2 km/h (1 Bft) 97,87 %
12.04.2022 19:04 22,5 C 21,1 C 16,7 C 50 % 1009,0 hPa 0,0 l/m 0 min 0 min 82 W/m 12,9 km/h (3 Bft) 95,74 %
12.04.2022 19:06 22,4 C 21,1 C 16,7 C 50 % 1009,0 hPa 0,0 l/m 0 min 0 min 78 W/m 12,9 km/h (3 Bft) 97,83 %
12.04.2022 19:08 22,4 C 21,1 C 16,7 C 50 % 1009,0 hPa 0,0 l/m 0 min 0 min 77 W/m 19,3 km/h (3 Bft) 97,87 %
12.04.2022 19:10 22,3 C 21,1 C 16,7 C 50 % 1009,0 hPa 0,0 l/m 0 min 0 min 75 W/m 12,9 km/h (3 Bft) 97,87 %
12.04.2022 19:12 22,3 C 21,1 C 16,7 C 50 % 1009,0 hPa 0,0 l/m 0 min 0 min 71 W/m 16,1 km/h (3 Bft) 97,87 %
12.04.2022 19:14 22,2 C 21,1 C 16,7 C 51 % 1009,0 hPa 0,0 l/m 0 min 0 min 70 W/m 6,4 km/h (2 Bft) 97,87 %
12.04.2022 19:16 22,2 C 21,1 C 16,7 C 51 % 1009,0 hPa 0,0 l/m 0 min 0 min 67 W/m 6,4 km/h (2 Bft) 97,87 %
12.04.2022 19:18 22,1 C 21,1 C 16,7 C 51 % 1009,0 hPa 0,0 l/m 0 min 0 min 64 W/m 12,9 km/h (3 Bft) 97,83 %
12.04.2022 19:20 22,1 C 20,6 C 16,1 C 51 % 1009,1 hPa 0,0 l/m 0 min 0 min 63 W/m 12,9 km/h (3 Bft) 97,87 %
12.04.2022 19:22 22,0 C 20,6 C 16,1 C 51 % 1009,1 hPa 0,0 l/m 0 min 0 min 61 W/m 12,9 km/h (3 Bft) 97,87 %
12.04.2022 19:24 21,9 C 20,6 C 16,1 C 51 % 1009,1 hPa 0,0 l/m 0 min 0 min 57 W/m 12,9 km/h (3 Bft) 97,87 %
12.04.2022 19:26 21,9 C 20,6 C 16,7 C 51 % 1009,1 hPa 0,0 l/m 0 min 0 min 55 W/m 16,1 km/h (3 Bft) 100,00 %
12.04.2022 19:28 21,8 C 20,6 C 16,1 C 51 % 1009,1 hPa 0,0 l/m 0 min 0 min 53 W/m 12,9 km/h (3 Bft) 100,00 %
12.04.2022 19:30 21,8 C 20,6 C 16,1 C 52 % 1009,1 hPa 0,0 l/m 0 min 0 min 50 W/m 16,1 km/h (3 Bft) 100,00 %
12.04.2022 19:32 21,8 C 20,6 C 16,1 C 52 % 1009,2 hPa 0,0 l/m 0 min 0 min 48 W/m 12,9 km/h (3 Bft) 97,87 %
12.04.2022 19:34 21,7 C 20,6 C 16,1 C 52 % 1009,2 hPa 0,0 l/m 0 min 0 min 47 W/m 12,9 km/h (3 Bft) 100,00 %
12.04.2022 19:36 21,7 C 20,6 C 16,1 C 52 % 1009,2 hPa 0,0 l/m 0 min 0 min 45 W/m 12,9 km/h (3 Bft) 100,00 %
12.04.2022 19:38 21,6 C 20,0 C 16,1 C 52 % 1009,2 hPa 0,0 l/m 0 min 0 min 43 W/m 6,4 km/h (2 Bft) 100,00 %
12.04.2022 19:40 21,6 C 20,0 C 16,1 C 52 % 1009,3 hPa 0,0 l/m 0 min 0 min 42 W/m 16,1 km/h (3 Bft) 100,00 %
12.04.2022 19:42 21,5 C 20,0 C 16,1 C 53 % 1009,3 hPa 0,0 l/m 0 min 0 min 40 W/m 16,1 km/h (3 Bft) 100,00 %
12.04.2022 19:44 21,4 C 20,0 C 16,1 C 53 % 1009,3 hPa 0,0 l/m 0 min 0 min 38 W/m 6,4 km/h (2 Bft) 100,00 %
12.04.2022 19:46 21,4 C 20,0 C 15,6 C 53 % 1009,3 hPa 0,0 l/m 0 min 0 min 36 W/m 16,1 km/h (3 Bft) 97,83 %
12.04.2022 19:48 21,3 C 20,0 C 15,6 C 53 % 1009,4 hPa 0,0 l/m 0 min 0 min 33 W/m 16,1 km/h (3 Bft) 100,00 %
12.04.2022 19:50 21,3 C 20,0 C 16,1 C 53 % 1009,4 hPa 0,0 l/m 0 min 0 min 32 W/m 16,1 km/h (3 Bft) 100,00 %
12.04.2022 19:52 21,3 C 20,0 C 15,6 C 53 % 1009,5 hPa 0,0 l/m 0 min 0 min 30 W/m 9,7 km/h (2 Bft) 100,00 %
12.04.2022 19:54 21,2 C 20,0 C 15,6 C 53 % 1009,5 hPa 0,0 l/m 0 min 0 min 27 W/m 16,1 km/h (3 Bft) 100,00 %
12.04.2022 19:56 21,2 C 20,0 C 15,6 C 53 % 1009,6 hPa 0,0 l/m 0 min 0 min 26 W/m 9,7 km/h (2 Bft) 100,00 %
12.04.2022 19:58 21,1 C 20,0 C 15,6 C 53 % 1009,5 hPa 0,0 l/m 0 min 0 min 24 W/m 12,9 km/h (3 Bft) 100,00 %
12.04.2022 20:00 21,1 C 19,4 C 15,6 C 54 % 1009,5 hPa 0,0 l/m 0 min 0 min 21 W/m 12,9 km/h (3 Bft) 100,00 %
12.04.2022 20:02 21,1 C 19,4 C 15,6 C 54 % 1009,5 hPa 0,0 l/m 0 min 0 min 19 W/m 9,7 km/h (2 Bft) 100,00 %
12.04.2022 20:04 21,0 C 19,4 C 15,6 C 54 % 1009,6 hPa 0,0 l/m 0 min 0 min 18 W/m 9,7 km/h (2 Bft) 100,00 %
12.04.2022 20:06 21,0 C 19,4 C 15,0 C 54 % 1009,6 hPa 0,0 l/m 0 min 0 min 15 W/m 3,2 km/h (1 Bft) 100,00 %
12.04.2022 20:08 20,9 C 19,4 C 15,0 C 54 % 1009,6 hPa 0,0 l/m 0 min 0 min 14 W/m 6,4 km/h (2 Bft) 100,00 %
12.04.2022 20:10 20,9 C 19,4 C 15,0 C 54 % 1009,6 hPa 0,0 l/m 0 min 0 min 12 W/m 6,4 km/h (2 Bft) 100,00 %
12.04.2022 20:12 20,8 C 18,9 C 15,0 C 54 % 1009,7 hPa 0,0 l/m 0 min 0 min 11 W/m 3,2 km/h (1 Bft) 100,00 %
12.04.2022 20:14 20,8 C 18,9 C 14,4 C 54 % 1009,7 hPa 0,0 l/m 0 min 0 min 9 W/m 6,4 km/h (2 Bft) 100,00 %
12.04.2022 20:16 20,8 C 18,9 C 14,4 C 55 % 1009,7 hPa 0,0 l/m 0 min 0 min 8 W/m 6,4 km/h (2 Bft) 100,00 %
12.04.2022 20:18 20,7 C 18,9 C 14,4 C 55 % 1009,8 hPa 0,0 l/m 0 min 0 min 6 W/m 3,2 km/h (1 Bft) 97,87 %
12.04.2022 20:20 20,7 C 18,9 C 14,4 C 55 % 1009,8 hPa 0,0 l/m 0 min 0 min 4 W/m 3,2 km/h (1 Bft) 97,87 %
12.04.2022 20:22 20,6 C 18,9 C 14,4 C 55 % 1009,8 hPa 0,0 l/m 0 min 0 min 0 W/m 3,2 km/h (1 Bft) 97,83 %
12.04.2022 20:24 20,6 C 18,9 C 14,4 C 55 % 1009,9 hPa 0,0 l/m 0 min 0 min 0 W/m 3,2 km/h (1 Bft) 97,87 %
12.04.2022 20:26 20,5 C 18,9 C 14,4 C 55 % 1010,0 hPa 0,0 l/m 0 min 0 min 0 W/m 3,2 km/h (1 Bft) 97,87 %
12.04.2022 20:28 20,5 C 18,9 C 14,4 C 55 % 1010,0 hPa 0,0 l/m 0 min 0 min 0 W/m 3,2 km/h (1 Bft) 95,74 %
12.04.2022 20:30 20,4 C 18,3 C 13,9 C 56 % 1010,0 hPa 0,0 l/m 0 min 0 min 0 W/m 3,2 km/h (1 Bft) 97,87 %
12.04.2022 20:32 20,4 C 18,3 C 13,9 C 56 % 1010,0 hPa 0,0 l/m 0 min 0 min 0 W/m 3,2 km/h (1 Bft) 93,48 %
12.04.2022 20:34 20,3 C 18,3 C 13,9 C 56 % 1009,9 hPa 0,0 l/m 0 min 0 min 0 W/m 6,4 km/h (2 Bft) 95,74 %
12.04.2022 20:36 20,3 C 18,3 C 13,9 C 56 % 1010,0 hPa 0,0 l/m 0 min 0 min 0 W/m 3,2 km/h (1 Bft) 95,74 %
12.04.2022 20:38 20,2 C 18,3 C 13,9 C 56 % 1010,1 hPa 0,0 l/m 0 min 0 min 0 W/m 6,4 km/h (2 Bft) 93,62 %
12.04.2022 20:40 20,2 C 18,3 C 13,9 C 57 % 1010,1 hPa 0,0 l/m 0 min 0 min 0 W/m 3,2 km/h (1 Bft) 93,62 %
12.04.2022 20:42 20,1 C 18,3 C 13,9 C 57 % 1010,1 hPa 0,0 l/m 0 min 0 min 0 W/m 3,2 km/h (1 Bft) 95,74 %
12.04.2022 20:44 20,0 C 18,3 C 13,9 C 57 % 1010,2 hPa 0,0 l/m 0 min 0 min 0 W/m 3,2 km/h (1 Bft) 95,65 %
12.04.2022 20:46 19,9 C 17,8 C 13,9 C 57 % 1010,2 hPa 0,0 l/m 0 min 0 min 0 W/m 3,2 km/h (1 Bft) 95,74 %
12.04.2022 20:48 19,9 C 17,8 C 13,9 C 58 % 1010,2 hPa 0,0 l/m 0 min 0 min 0 W/m 3,2 km/h (1 Bft) 93,62 %
12.04.2022 20:50 19,8 C 17,8 C 13,3 C 58 % 1010,2 hPa 0,0 l/m 0 min 0 min 0 W/m 3,2 km/h (1 Bft) 93,62 %
12.04.2022 20:52 19,8 C 17,8 C 13,3 C 58 % 1010,2 hPa 0,0 l/m 0 min 0 min 0 W/m 3,2 km/h (1 Bft) 93,62 %
12.04.2022 20:54 19,7 C 17,8 C 13,3 C 59 % 1010,2 hPa 0,0 l/m 0 min 0 min 0 W/m 3,2 km/h (1 Bft) 91,49 %
12.04.2022 20:56 19,7 C 17,2 C 12,8 C 59 % 1010,2 hPa 0,0 l/m 0 min 0 min 0 W/m 3,2 km/h (1 Bft) 91,30 %
12.04.2022 20:58 19,6 C 17,2 C 12,8 C 60 % 1010,3 hPa 0,0 l/m 0 min 0 min 0 W/m 3,2 km/h (1 Bft) 93,62 %
12.04.2022 21:00 19,6 C 17,2 C 12,2 C 60 % 1010,3 hPa 0,0 l/m 0 min 0 min 0 W/m 3,2 km/h (1 Bft) 93,62 %
12.04.2022 21:02 19,5 C 17,2 C 12,2 C 61 % 1010,3 hPa 0,0 l/m 0 min 0 min 0 W/m 3,2 km/h (1 Bft) 93,62 %
12.04.2022 21:04 19,4 C 17,2 C 12,2 C 61 % 1010,4 hPa 0,0 l/m 0 min 0 min 0 W/m 0,0 km/h (0 Bft) 93,62 %
12.04.2022 21:06 19,3 C 16,7 C 12,2 C 62 % 1010,5 hPa 0,0 l/m 0 min 0 min 0 W/m 3,2 km/h (1 Bft) 91,49 %
12.04.2022 21:08 19,2 C 16,7 C 11,7 C 61 % 1010,5 hPa 0,0 l/m 0 min 0 min 0 W/m 0,0 km/h (0 Bft) 91,30 %
12.04.2022 21:10 19,1 C 16,7 C 11,7 C 61 % 1010,5 hPa 0,0 l/m 0 min 0 min 0 W/m 3,2 km/h (1 Bft) 94,74 %
12.04.2022 21:12 19,0 C 17,2 C 11,7 C 62 % 1010,5 hPa 0,0 l/m 0 min 0 min 0 W/m 6,4 km/h (2 Bft) 95,74 %
12.04.2022 21:14 18,9 C 17,2 C 12,2 C 61 % 1010,6 hPa 0,0 l/m 0 min 0 min 0 W/m 6,4 km/h (2 Bft) 95,74 %
12.04.2022 21:16 18,9 C 17,2 C 12,2 C 61 % 1010,7 hPa 0,0 l/m 0 min 0 min 0 W/m 3,2 km/h (1 Bft) 95,74 %
12.04.2022 21:18 18,8 C 17,2 C 12,2 C 61 % 1010,7 hPa 0,0 l/m 0 min 0 min 0 W/m 3,2 km/h (1 Bft) 95,74 %
12.04.2022 21:20 18,8 C 17,2 C 12,2 C 60 % 1010,7 hPa 0,0 l/m 0 min 0 min 0 W/m 3,2 km/h (1 Bft) 97,87 %
12.04.2022 21:22 18,8 C 17,2 C 12,8 C 60 % 1010,8 hPa 0,0 l/m 0 min 0 min 0 W/m 6,4 km/h (2 Bft) 97,83 %
12.04.2022 21:24 18,7 C 17,2 C 12,8 C 60 % 1010,8 hPa 0,0 l/m 0 min 0 min 0 W/m 6,4 km/h (2 Bft) 100,00 %
12.04.2022 21:26 18,7 C 17,2 C 12,8 C 61 % 1010,8 hPa 0,0 l/m 0 min 0 min 0 W/m 3,2 km/h (1 Bft) 100,00 %
12.04.2022 21:28 18,7 C 17,2 C 12,8 C 61 % 1010,9 hPa 0,0 l/m 0 min 0 min 0 W/m 6,4 km/h (2 Bft) 100,00 %
12.04.2022 21:30 18,7 C 17,2 C 12,8 C 61 % 1010,9 hPa 0,0 l/m 0 min 0 min 0 W/m 3,2 km/h (1 Bft) 97,87 %
12.04.2022 21:32 18,6 C 17,2 C 12,8 C 61 % 1010,9 hPa 0,0 l/m 0 min 0 min 0 W/m 3,2 km/h (1 Bft) 100,00 %
12.04.2022 21:34 18,6 C 17,2 C 12,2 C 62 % 1010,9 hPa 0,0 l/m 0 min 0 min 0 W/m 3,2 km/h (1 Bft) 97,83 %
12.04.2022 21:36 18,6 C 17,2 C 12,2 C 62 % 1010,9 hPa 0,0 l/m 0 min 0 min 0 W/m 3,2 km/h (1 Bft) 100,00 %
12.04.2022 21:38 18,5 C 16,7 C 12,2 C 62 % 1010,9 hPa 0,0 l/m 0 min 0 min 0 W/m 3,2 km/h (1 Bft) 100,00 %
12.04.2022 21:40 18,5 C 16,7 C 12,2 C 62 % 1010,9 hPa 0,0 l/m 0 min 0 min 0 W/m 3,2 km/h (1 Bft) 100,00 %
12.04.2022 21:42 18,4 C 16,7 C 12,2 C 62 % 1010,9 hPa 0,0 l/m 0 min 0 min 0 W/m 3,2 km/h (1 Bft) 100,00 %
12.04.2022 21:44 18,4 C 16,7 C 11,7 C 62 % 1010,9 hPa 0,0 l/m 0 min 0 min 0 W/m 3,2 km/h (1 Bft) 100,00 %
12.04.2022 21:46 18,4 C 16,7 C 11,7 C 62 % 1010,9 hPa 0,0 l/m 0 min 0 min 0 W/m 3,2 km/h (1 Bft) 100,00 %
12.04.2022 21:48 18,3 C 16,7 C 11,7 C 62 % 1010,9 hPa 0,0 l/m 0 min 0 min 0 W/m 3,2 km/h (1 Bft) 100,00 %
12.04.2022 21:50 18,3 C 16,7 C 11,7 C 62 % 1010,9 hPa 0,0 l/m 0 min 0 min 0 W/m 3,2 km/h (1 Bft) 100,00 %
12.04.2022 21:52 18,3 C 16,7 C 11,7 C 62 % 1010,9 hPa 0,0 l/m 0 min 0 min 0 W/m 9,7 km/h (2 Bft) 100,00 %
12.04.2022 21:54 18,2 C 16,7 C 11,7 C 62 % 1010,9 hPa 0,0 l/m 0 min 0 min 0 W/m 6,4 km/h (2 Bft) 100,00 %
12.04.2022 21:56 18,2 C 16,7 C 11,7 C 62 % 1011,0 hPa 0,0 l/m 0 min 0 min 0 W/m 3,2 km/h (1 Bft) 97,87 %
12.04.2022 21:58 18,2 C 16,7 C 11,7 C 63 % 1011,0 hPa 0,0 l/m 0 min 0 min 0 W/m 3,2 km/h (1 Bft) 100,00 %
12.04.2022 22:00 18,1 C 16,7 C 11,1 C 63 % 1011,0 hPa 0,0 l/m 0 min 0 min 0 W/m 0,0 km/h (0 Bft) 100,00 %
12.04.2022 22:02 18,1 C 16,7 C 11,1 C 63 % 1011,0 hPa 0,0 l/m 0 min 0 min 0 W/m 3,2 km/h (1 Bft) 95,74 %
12.04.2022 22:04 18,1 C 16,7 C 11,1 C 63 % 1011,0 hPa 0,0 l/m 0 min 0 min 0 W/m 3,2 km/h (1 Bft) 100,00 %
12.04.2022 22:06 18,0 C 16,7 C 11,1 C 63 % 1011,1 hPa 0,0 l/m 0 min 0 min 0 W/m 3,2 km/h (1 Bft) 100,00 %
12.04.2022 22:08 18,0 C 16,7 C 11,1 C 63 % 1011,1 hPa 0,0 l/m 0 min 0 min 0 W/m 3,2 km/h (1 Bft) 100,00 %
12.04.2022 22:10 17,9 C 16,7 C 11,1 C 63 % 1011,0 hPa 0,0 l/m 0 min 0 min 0 W/m 3,2 km/h (1 Bft) 100,00 %
12.04.2022 22:12 17,9 C 16,7 C 11,1 C 63 % 1011,0 hPa 0,0 l/m 0 min 0 min 0 W/m 0,0 km/h (0 Bft) 100,00 %
12.04.2022 22:14 17,9 C 16,7 C 11,1 C 63 % 1011,0 hPa 0,0 l/m 0 min 0 min 0 W/m 0,0 km/h (0 Bft) 100,00 %
12.04.2022 22:16 17,8 C 16,1 C 11,1 C 64 % 1011,0 hPa 0,0 l/m 0 min 0 min 0 W/m 0,0 km/h (0 Bft) 100,00 %
12.04.2022 22:18 17,8 C 16,1 C 11,1 C 64 % 1011,0 hPa 0,0 l/m 0 min 0 min 0 W/m 0,0 km/h (0 Bft) 100,00 %
12.04.2022 22:20 17,8 C 16,1 C 11,1 C 64 % 1011,0 hPa 0,0 l/m 0 min 0 min 0 W/m 0,0 km/h (0 Bft) 100,00 %
12.04.2022 22:22 17,7 C 16,1 C 10,6 C 64 % 1011,1 hPa 0,0 l/m 0 min 0 min 0 W/m 0,0 km/h (0 Bft) 100,00 %
12.04.2022 22:24 17,7 C 15,6 C 10,6 C 65 % 1011,1 hPa 0,0 l/m 0 min 0 min 0 W/m 0,0 km/h (0 Bft) 100,00 %
12.04.2022 22:26 17,7 C 15,6 C 10,6 C 66 % 1011,1 hPa 0,0 l/m 0 min 0 min 0 W/m 0,0 km/h (0 Bft) 100,00 %
12.04.2022 22:28 17,6 C 15,6 C 10,6 C 65 % 1011,1 hPa 0,0 l/m 0 min 0 min 0 W/m 0,0 km/h (0 Bft) 97,87 %
12.04.2022 22:30 17,6 C 15,6 C 10,6 C 65 % 1011,1 hPa 0,0 l/m 0 min 0 min 0 W/m 0,0 km/h (0 Bft) 100,00 %
12.04.2022 22:32 17,5 C 15,6 C 10,6 C 65 % 1011,1 hPa 0,0 l/m 0 min 0 min 0 W/m 0,0 km/h (0 Bft) 100,00 %
12.04.2022 22:34 17,5 C 15,6 C 10,0 C 65 % 1011,0 hPa 0,0 l/m 0 min 0 min 0 W/m 0,0 km/h (0 Bft) 100,00 %
12.04.2022 22:36 17,4 C 15,0 C 10,0 C 66 % 1011,1 hPa 0,0 l/m 0 min 0 min 0 W/m 0,0 km/h (0 Bft) 100,00 %
12.04.2022 22:38 17,4 C 15,0 C 10,0 C 66 % 1011,0 hPa 0,0 l/m 0 min 0 min 0 W/m 0,0 km/h (0 Bft) 100,00 %
12.04.2022 22:40 17,4 C 15,0 C 10,0 C 67 % 1011,1 hPa 0,0 l/m 0 min 0 min 0 W/m 0,0 km/h (0 Bft) 97,87 %
12.04.2022 22:42 17,3 C 15,0 C 10,0 C 67 % 1011,1 hPa 0,0 l/m 0 min 0 min 0 W/m 0,0 km/h (0 Bft) 100,00 %
12.04.2022 22:44 17,3 C 15,0 C 10,0 C 67 % 1011,2 hPa 0,0 l/m 0 min 0 min 0 W/m 0,0 km/h (0 Bft) 97,87 %
12.04.2022 22:46 17,2 C 15,0 C 10,0 C 67 % 1011,2 hPa 0,0 l/m 0 min 0 min 0 W/m 0,0 km/h (0 Bft) 97,87 %
12.04.2022 22:48 17,2 C 15,0 C 10,0 C 67 % 1011,2 hPa 0,0 l/m 0 min 0 min 0 W/m 0,0 km/h (0 Bft) 95,65 %
12.04.2022 22:50 17,1 C 15,0 C 10,0 C 68 % 1011,2 hPa 0,0 l/m 0 min 0 min 0 W/m 0,0 km/h (0 Bft) 97,87 %
12.04.2022 22:52 17,1 C 15,0 C 10,0 C 68 % 1011,2 hPa 0,0 l/m 0 min 0 min 0 W/m 0,0 km/h (0 Bft) 97,87 %
12.04.2022 22:54 17,1 C 14,4 C 10,0 C 68 % 1011,2 hPa 0,0 l/m 0 min 0 min 0 W/m 0,0 km/h (0 Bft) 97,87 %
12.04.2022 22:56 16,9 C 14,4 C 10,0 C 68 % 1011,2 hPa 0,0 l/m 0 min 0 min 0 W/m 0,0 km/h (0 Bft) 95,74 %
12.04.2022 22:58 16,9 C 14,4 C 10,0 C 68 % 1011,2 hPa 0,0 l/m 0 min 0 min 0 W/m 0,0 km/h (0 Bft) 97,87 %
12.04.2022 23:00 16,8 C 14,4 C 10,0 C 69 % 1011,2 hPa 0,0 l/m 0 min 0 min 0 W/m 0,0 km/h (0 Bft) 97,83 %
12.04.2022 23:02 16,7 C 14,4 C 10,0 C 69 % 1011,2 hPa 0,0 l/m 0 min 0 min 0 W/m 0,0 km/h (0 Bft) 97,87 %
12.04.2022 23:04 16,7 C 14,4 C 10,0 C 69 % 1011,2 hPa 0,0 l/m 0 min 0 min 0 W/m 0,0 km/h (0 Bft) 95,74 %
12.04.2022 23:06 16,7 C 14,4 C 10,0 C 69 % 1011,2 hPa 0,0 l/m 0 min 0 min 0 W/m 0,0 km/h (0 Bft) 93,62 %
12.04.2022 23:08 16,6 C 14,4 C 9,4 C 70 % 1011,2 hPa 0,0 l/m 0 min 0 min 0 W/m 0,0 km/h (0 Bft) 97,87 %
12.04.2022 23:10 16,6 C 14,4 C 9,4 C 70 % 1011,2 hPa 0,0 l/m 0 min 0 min 0 W/m 0,0 km/h (0 Bft) 95,74 %
12.04.2022 23:12 16,5 C 14,4 C 9,4 C 70 % 1011,2 hPa 0,0 l/m 0 min 0 min 0 W/m 0,0 km/h (0 Bft) 91,30 %
12.04.2022 23:14 16,4 C 14,4 C 9,4 C 70 % 1011,2 hPa 0,0 l/m 0 min 0 min 0 W/m 0,0 km/h (0 Bft) 95,74 %
12.04.2022 23:16 16,4 C 14,4 C 9,4 C 70 % 1011,2 hPa 0,0 l/m 0 min 0 min 0 W/m 0,0 km/h (0 Bft) 97,73 %
12.04.2022 23:18 16,3 C 14,4 C 9,4 C 71 % 1011,2 hPa 0,0 l/m 0 min 0 min 0 W/m 0,0 km/h (0 Bft) 96,49 %
12.04.2022 23:20 16,3 C 14,4 C 9,4 C 71 % 1011,3 hPa 0,0 l/m 0 min 0 min 0 W/m 0,0 km/h (0 Bft) 95,74 %
12.04.2022 23:22 16,3 C 14,4 C 9,4 C 71 % 1011,3 hPa 0,0 l/m 0 min 0 min 0 W/m 0,0 km/h (0 Bft) 95,74 %
12.04.2022 23:24 16,2 C 14,4 C 9,4 C 71 % 1011,2 hPa 0,0 l/m 0 min 0 min 0 W/m 0,0 km/h (0 Bft) 95,74 %
12.04.2022 23:26 16,2 C 14,4 C 9,4 C 72 % 1011,3 hPa 0,0 l/m 0 min 0 min 0 W/m 0,0 km/h (0 Bft) 94,74 %
12.04.2022 23:28 16,2 C 14,4 C 9,4 C 71 % 1011,3 hPa 0,0 l/m 0 min 0 min 0 W/m 3,2 km/h (1 Bft) 95,83 %
12.04.2022 23:30 16,1 C 14,4 C 9,4 C 71 % 1011,3 hPa 0,0 l/m 0 min 0 min 0 W/m 0,0 km/h (0 Bft) 93,62 %
12.04.2022 23:32 16,1 C 14,4 C 9,4 C 71 % 1011,3 hPa 0,0 l/m 0 min 0 min 0 W/m 3,2 km/h (1 Bft) 94,44 %
12.04.2022 23:34 16,1 C 14,4 C 9,4 C 71 % 1011,4 hPa 0,0 l/m 0 min 0 min 0 W/m 0,0 km/h (0 Bft) 97,87 %
12.04.2022 23:36 16,1 C 14,4 C 9,4 C 70 % 1011,3 hPa 0,0 l/m 0 min 0 min 0 W/m 0,0 km/h (0 Bft) 94,74 %
12.04.2022 23:38 16,0 C 14,4 C 9,4 C 70 % 1011,3 hPa 0,0 l/m 0 min 0 min 0 W/m 0,0 km/h (0 Bft) 95,83 %
12.04.2022 23:40 16,0 C 14,4 C 9,4 C 71 % 1011,4 hPa 0,0 l/m 0 min 0 min 0 W/m 0,0 km/h (0 Bft) 95,74 %
12.04.2022 23:42 15,9 C 14,4 C 9,4 C 71 % 1011,4 hPa 0,0 l/m 0 min 0 min 0 W/m 3,2 km/h (1 Bft) 95,74 %
12.04.2022 23:44 15,9 C 14,4 C 9,4 C 71 % 1011,4 hPa 0,0 l/m 0 min 0 min 0 W/m 0,0 km/h (0 Bft) 94,44 %
12.04.2022 23:46 15,9 C 14,4 C 9,4 C 70 % 1011,3 hPa 0,0 l/m 0 min 0 min 0 W/m 0,0 km/h (0 Bft) 100,00 %
12.04.2022 23:48 15,9 C 14,4 C 9,4 C 70 % 1011,4 hPa 0,0 l/m 0 min 0 min 0 W/m 0,0 km/h (0 Bft) 93,75 %
12.04.2022 23:50 15,8 C 14,4 C 9,4 C 70 % 1011,4 hPa 0,0 l/m 0 min 0 min 0 W/m 0,0 km/h (0 Bft) 97,87 %
12.04.2022 23:52 15,8 C 14,4 C 9,4 C 70 % 1011,5 hPa 0,0 l/m 0 min 0 min 0 W/m 0,0 km/h (0 Bft) 97,87 %
12.04.2022 23:54 15,8 C 14,4 C 9,4 C 70 % 1011,5 hPa 0,0 l/m 0 min 0 min 0 W/m 0,0 km/h (0 Bft) 98,15 %
12.04.2022 23:56 15,8 C 14,4 C 9,4 C 70 % 1011,5 hPa 0,0 l/m 0 min 0 min 0 W/m 0,0 km/h (0 Bft) 97,37 %
12.04.2022 23:58 15,8 C 14,4 C 9,4 C 70 % 1011,5 hPa 0,0 l/m 0 min 0 min 0 W/m 0,0 km/h (0 Bft) 97,92 %
_ Min-Zeit 07:16 05:54 05:48 16:32 17:12 - - - - 21:04 03:32
Minimum _ 9,2 C 8,3 C 5,0 C 43 % 1008,2 hPa - - - - 0,0 km/h (0 Bft) 42,86 %
_ Max-Zeit 16:26 16:20 12:34 23:26 00:00 00:00 12:08 00:00 13:18 11:22 00:04
Maximum _ 24,2 C 28,3 C 21,7 C 72 % 1013,0 hPa 0,0 l/m 4 min 0 min 832 W/m 32,2 km/h
S-SO (5 Bft)
100,00 %
Durchschnitt _ 16,2 C 16,3 C 11,5 C 58 % 1010,6 hPa #0,0 l/m #9:08 h #0 min. 372 W/m 12,7 km/h (3 Bft) 97,47 %
© 2022 W. Hausmann